GEFSNGP_con_prob3kmehi_132.txt.gz
EHI
0 0 0 0 0 0 0 0 1 3 7 11 17 25 37 45 46 44 42 44 47 49 47 40 32 25 21 22 23 24 24 23 22 20 18 19 21 21 19 16 14 13 14 15
0 0 0 0 0 0 0 0 1 4 9 16 22 28 37 45 46 46 45 47 50 49 45 38 30 25 22 22 25 25 24 23 22 20 18 19 21 21 19 16 14 14 14 15
0 0 0 0 1 1 1 1 3 7 13 20 27 32 39 44 48 48 48 50 51 48 42 34 28 26 24 25 27 27 24 22 22 22 20 19 19 20 19 17 15 14 14 13
0 0 0 0 1 2 2 3 7 12 17 22 31 38 43 47 51 50 50 52 50 44 38 33 29 29 28 28 28 27 23 20 20 21 20 19 19 19 19 18 16 14 11 9
0 0 0 1 2 3 4 5 11 17 20 24 32 39 46 52 54 52 52 54 49 41 38 37 34 33 32 31 29 27 23 21 20 20 19 19 19 20 21 19 16 12 9 7
0 0 0 2 4 4 4 8 14 21 23 26 31 39 48 54 53 51 52 51 44 40 41 42 39 35 32 30 30 27 24 23 21 20 20 20 20 20 19 16 14 10 8 7
0 0 1 2 4 5 10 17 22 25 28 30 35 42 48 49 47 45 44 41 37 37 41 41 38 33 28 27 27 25 22 22 22 21 19 18 18 16 13 11 9 9 8 8
0 2 6 8 8 9 18 27 32 33 35 36 38 40 41 41 37 34 32 32 32 35 37 37 34 30 25 22 22 20 20 20 21 19 15 13 13 11 8 7 7 7 7 7
7 9 14 16 13 13 19 27 32 33 32 31 31 32 32 31 27 24 24 26 29 31 31 31 29 25 22 20 20 19 18 18 18 14 11 10 10 9 7 6 6 6 6 5
17 16 17 18 16 14 16 20 23 22 19 19 22 24 24 23 20 18 19 22 24 25 24 23 23 21 19 19 19 16 13 13 11 8 8 9 8 6 5 5 5 6 5 3
17 17 17 16 15 13 13 15 15 13 12 13 16 18 18 17 15 14 15 16 18 19 19 18 18 17 16 16 14 11 9 8 6 4 5 5 4 2 2 2 3 4 4 2
12 14 16 15 12 10 10 9 9 10 11 11 12 13 13 13 13 12 11 11 13 15 15 13 13 13 11 11 10 8 6 6 4 3 3 3 1 0 0 0 1 1 1 1
10 10 11 10 8 6 5 5 5 7 9 9 9 9 10 10 10 10 9 9 10 11 10 8 9 9 9 8 8 6 5 4 3 3 3 2 1 0 0 0 0 0 0 0
7 7 6 6 5 4 3 3 3 5 7 7 7 7 8 9 9 8 8 8 7 6 6 6 6 6 6 5 5 4 3 2 2 2 2 1 0 0 0 0 0 0 0 0
3 3 3 3 2 2 2 3 3 4 6 5 4 5 7 7 6 6 6 6 5 3 3 3 3 3 3 2 2 2 1 0 1 1 1 0 0 0 0 0 0 0 0 0
0 1 2 1 2 2 2 3 3 4 4 3 2 3 4 4 4 3 3 3 2 1 1 1 1 1 1 0 0 0 0 0 0 0 0 0 0 0 0 0 0 0 0 0
0 0 0 0 1 1 2 2 2 2 2 2 2 2 3 3 3 3 1 1 0 0 0 0 0 0 0 0 0 0 0 0 0 0 0 0 0 0 0 0 0 0 0 0
0 0 1 1 1 1 1 1 1 1 2 4 3 2 2 3 3 2 1 0 0 0 0 0 0 0 0 0 0 0 0 0 0 0 0 0 0 0 0 0 0 0 0 0
0 0 1 2 2 2 0 0 0 1 2 3 3 2 1 2 2 2 1 0 0 0 0 0 0 0 0 0 0 0 0 0 0 0 0 0 0 0 0 0 0 0 0 0
0 0 1 1 1 1 0 0 0 1 1 1 1 1 0 1 1 1 0 0 0 0 0 0 0 0 0 0 0 0 0 0 0 0 0 0 0 0 0 0 0 0 0 0
0 0 0 0 0 0 0 0 0 0 0 1 1 0 0 0 0 0 0 0 0 0 0 0 0 0 0 0 0 0 0 0 0 0 0 0 0 0 0 0 0 0 0 0
0 0 0 0 0 0 0 0 0 0 1 2 2 1 1 0 0 0 0 0 0 0 0 0 0 0 0 0 0 0 0 0 0 0 0 0 0 0 0 0 0 0 0 0
1 1 1 1 0 0 0 0 0 0 1 2 3 3 2 1 0 0 0 0 0 0 0 0 0 0 0 0 0 0 0 0 0 0 0 0 0 0 0 0 0 0 0 0
2 1 1 1 1 0 0 0 0 0 1 2 3 3 2 1 0 0 0 0 0 0 0 0 0 0 0 0 0 0 0 0 0 0 0 0 0 0 0 0 0 0 0 0
1 1 0 0 0 0 0 0 0 0 0 1 2 2 1 0 0 0 0 0 0 0 0 0 0 0 0 0 0 0 0 0 0 0 0 0 0 0 0 0 0 0 0 0
0 0 0 0 0 0 0 0 0 0 0 1 1 1 0 0 0 0 0 0 0 0 0 0 0 0 0 0 0 0 0 0 0 0 0 0 0 0 0 0 0 0 0 0
0 0 0 0 0 0 0 0 0 0 0 1 1 0 0 0 0 0 0 0 0 0 0 0 0 0 0 0 0 0 0 0 0 0 0 0 0 0 0 0 0 0 0 0

GEFSNGP_con_prob3kmehi_138.txt.gz
EHI
0 0 0 0 0 0 0 0 1 2 4 8 17 32 43 47 47 45 39 29 21 17 14 12 8 7 9 10 10 9 9 9 9 9 9 8 5 3 1 1 2 4 4 4
0 0 0 0 0 0 0 0 2 5 9 15 25 36 46 49 46 41 34 27 20 15 11 9 7 6 8 9 8 7 8 8 8 7 8 7 5 3 2 1 2 5 5 5
0 0 0 0 0 0 1 1 4 10 18 26 32 39 45 46 41 32 27 24 18 11 7 5 4 4 6 6 5 4 5 6 5 5 5 5 4 4 3 3 3 5 5 5
0 0 0 0 0 1 2 4 6 14 24 32 35 37 37 35 31 26 23 22 15 8 4 3 1 1 3 3 2 1 2 3 3 3 3 3 4 4 3 3 3 3 3 3
0 0 0 0 0 1 3 6 9 16 26 32 35 36 32 26 25 24 22 19 13 8 5 3 1 0 1 1 1 0 0 1 1 1 1 2 3 3 2 2 1 1 1 1
0 0 0 0 0 1 3 6 10 17 25 30 32 34 31 27 24 23 20 15 12 9 6 4 2 1 2 2 1 1 1 0 0 0 0 1 1 1 1 1 0 0 0 0
0 0 0 0 0 0 2 6 13 19 24 27 28 28 29 28 24 20 15 12 10 9 7 5 3 2 2 2 3 3 2 1 0 0 0 0 0 0 0 0 0 0 0 0
0 0 0 0 0 1 4 10 18 23 26 29 30 28 26 24 20 16 13 10 9 8 6 5 4 3 2 2 3 4 3 1 0 0 0 0 0 0 0 0 0 0 0 1
1 1 2 3 4 6 10 16 21 24 26 29 30 26 21 18 15 14 12 10 8 6 5 4 3 3 2 2 3 3 2 1 0 0 0 0 0 0 0 0 0 0 0 1
2 2 5 8 11 13 15 17 20 21 21 22 23 19 16 13 11 12 11 10 8 5 4 3 2 2 1 2 2 1 1 0 0 0 0 0 0 0 0 0 0 0 0 1
1 2 5 9 12 14 14 15 16 16 14 14 14 13 11 9 9 8 8 6 5 4 3 3 2 1 1 2 2 1 0 0 0 0 0 0 0 0 0 0 0 0 0 0
0 1 2 5 8 11 11 12 12 11 10 9 9 8 7 6 5 4 3 3 3 3 3 3 2 2 2 2 2 1 0 0 0 0 0 0 0 0 0 0 0 0 0 0
0 0 1 2 6 9 10 9 8 7 6 6 5 3 2 2 1 1 1 1 2 2 2 2 1 1 1 1 1 0 0 0 0 0 0 0 0 0 0 0 0 0 0 0
0 1 2 3 6 8 9 7 5 4 3 3 2 0 0 0 0 0 0 1 1 1 0 0 0 0 0 0 0 0 0 0 0 0 0 0 0 0 0 0 0 0 0 0
1 2 3 4 6 7 6 4 3 3 1 1 0 0 0 0 0 0 0 0 0 0 0 0 0 0 0 0 0 0 0 0 0 0 0 0 0 0 0 0 0 0 0 0
1 2 4 5 5 4 3 2 2 2 1 0 0 0 0 0 0 0 0 0 0 0 0 0 0 0 0 0 0 0 0 0 0 0 0 0 0 0 0 0 0 0 0 0
1 2 3 3 3 2 1 1 1 1 0 0 0 0 0 0 0 0 0 0 0 0 0 0 0 0 0 0 0 0 0 0 0 0 0 0 0 0 0 0 0 0 0 0
0 1 1 1 1 0 0 0 0 0 0 0 0 0 0 0 0 0 0 0 0 0 0 0 0 0 0 0 0 0 0 0 0 0 0 0 0 0 0 0 0 0 0 0
0 0 0 0 0 0 0 0 0 0 0 0 0 0 0 0 0 0 0 0 0 0 0 0 0 0 0 0 0 0 0 0 0 0 0 0 0 0 0 0 0 0 0 0
0 0 0 0 0 0 0 0 0 0 0 0 0 0 0 0 0 0 0 0 0 0 0 0 0 0 0 0 0 0 0 0 0 0 0 0 0 0 0 0 0 0 0 0
0 0 0 0 0 0 0 0 0 0 0 0 0 0 0 0 0 0 0 0 0 0 0 0 0 0 0 0 0 0 0 0 0 0 0 0 0 0 0 0 0 0 0 0
0 0 0 0 0 0 0 0 0 0 0 0 0 0 0 0 0 0 0 0 0 0 0 0 0 0 0 0 0 0 0 0 0 0 0 0 0 0 0 0 0 0 0 0
0 0 0 0 0 0 0 0 0 0 0 0 0 0 0 0 0 0 0 0 0 0 0 0 0 0 0 0 0 0 0 0 0 0 0 0 0 0 0 0 0 0 0 0
0 0 0 0 0 0 0 0 0 0 0 0 0 0 0 0 0 0 0 0 0 0 0 0 0 0 0 0 0 0 0 0 0 0 0 0 0 0 0 0 0 0 0 0
0 0 0 0 0 0 0 0 0 0 0 0 0 0 0 0 0 0 0 0 0 0 0 0 0 0 0 0 0 0 0 0 0 0 0 0 0 0 0 0 0 0 0 0
0 0 0 0 0 0 0 0 0 0 0 0 0 0 0 0 0 0 0 0 0 0 0 0 0 0 0 0 0 0 0 0 0 0 0 0 0 0 0 0 0 0 0 0
0 0 0 0 0 0 0 0 0 0 0 0 0 0 0 0 0 0 0 0 0 0 0 0 0 0 0 0 0 0 0 0 0 0 0 0 0 0 0 0 0 0 0 0

GEFSNGP_con_prob3kmehi_144.txt.gz
EHI
0 0 0 0 0 0 0 0 0 0 0 0 3 7 12 17 24 29 26 20 15 10 9 8 6 4 2 1 0 0 1 1 1 0 0 0 0 0 0 0 0 0 0 0
0 0 0 0 0 0 0 0 0 0 0 1 4 9 14 18 25 29 27 20 13 9 9 8 6 4 2 1 0 0 0 0 0 0 0 0 0 0 0 0 0 0 0 0
0 0 0 0 0 0 0 0 0 0 1 3 7 12 15 18 24 28 25 17 10 7 7 6 4 2 1 1 0 0 0 0 0 0 0 0 0 0 0 0 0 0 0 0
0 0 0 0 0 0 0 0 0 0 2 5 10 12 14 15 18 22 20 12 6 4 3 2 1 0 0 0 0 0 0 0 0 0 0 0 0 0 0 0 0 0 0 0
0 0 0 0 0 0 0 0 0 1 4 9 13 13 11 10 12 15 13 8 4 1 0 0 0 0 0 0 0 0 0 0 0 0 0 0 0 0 0 0 0 0 0 0
0 0 0 0 0 0 0 0 1 2 7 13 14 11 8 7 9 9 7 4 2 0 0 0 0 0 0 0 0 0 0 0 0 0 0 0 0 0 0 0 0 0 0 0
0 0 0 0 0 0 0 0 1 3 8 11 10 7 7 9 9 8 5 3 0 0 0 0 0 0 0 0 0 0 0 0 0 0 0 0 0 0 0 0 0 0 0 0
0 0 0 0 0 0 0 0 1 3 7 8 7 7 9 11 10 9 7 3 0 0 0 0 0 0 0 0 0 0 0 0 0 0 0 0 0 0 0 0 0 0 0 0
0 0 0 0 0 0 0 0 1 3 5 8 9 10 12 12 11 8 6 3 1 0 0 0 0 0 0 0 0 0 0 0 0 0 0 0 0 0 0 0 0 0 0 0
0 0 0 0 0 0 1 2 3 4 7 9 11 12 11 10 9 7 5 3 2 1 0 0 0 0 0 0 0 0 0 0 0 0 0 0 0 0 0 0 0 0 0 0
0 0 0 0 0 1 4 6 7 7 8 10 11 11 9 7 6 5 4 3 2 1 0 0 0 0 0 0 0 0 0 0 0 0 0 0 0 0 0 0 0 0 0 0
0 0 0 0 0 1 4 6 7 8 8 9 10 9 6 4 3 3 2 1 1 0 0 0 0 0 0 0 0 0 0 0 0 0 0 0 0 0 0 0 0 0 0 0
0 0 0 0 0 0 1 3 5 6 7 8 8 6 4 1 1 1 0 0 0 0 0 0 0 0 0 0 0 0 0 0 0 0 0 0 0 0 0 0 0 0 0 0
0 0 0 0 1 0 0 2 4 6 6 5 4 2 1 0 0 0 0 0 0 0 0 0 0 0 0 0 0 0 0 0 0 0 0 0 0 0 0 0 0 0 0 0
0 0 0 0 0 0 0 2 3 4 4 2 1 0 0 0 0 0 0 0 0 0 0 0 0 0 0 0 0 0 0 0 0 0 0 0 0 0 0 0 0 0 0 0
0 0 0 0 0 0 0 1 1 1 1 0 0 0 0 0 0 0 0 0 0 0 0 0 0 0 0 0 0 0 0 0 0 0 0 0 0 0 0 0 0 0 0 0
0 0 0 0 0 0 0 0 0 0 0 0 0 0 0 0 0 0 0 0 0 0 0 0 0 0 0 0 0 0 0 0 0 0 0 0 0 0 0 0 0 0 0 0
0 0 0 0 1 0 0 0 0 0 0 0 0 0 0 0 0 0 0 0 0 0 0 0 0 0 0 0 0 0 0 0 0 0 0 0 0 0 0 0 0 0 0 0
0 0 0 0 0 0 0 0 0 0 0 0 0 0 0 0 0 0 0 0 0 0 0 0 0 0 0 0 0 0 0 0 0 0 0 0 0 0 0 0 0 0 0 0
0 0 0 0 0 0 0 0 0 0 0 0 0 0 0 0 0 0 0 0 0 0 0 0 0 0 0 0 0 0 0 0 0 0 0 0 0 0 0 0 0 0 0 0
0 0 0 0 0 0 0 0 0 0 0 0 0 0 0 0 0 0 0 0 0 0 0 0 0 0 0 0 0 0 0 0 0 0 0 0 0 0 0 0 0 0 0 0
0 0 0 0 0 0 0 0 0 0 0 0 0 0 0 0 0 0 0 0 0 0 0 0 0 0 0 0 0 0 0 0 0 0 0 0 0 0 0 0 0 0 0 0
0 0 0 0 0 0 0 0 0 0 0 0 0 0 0 0 0 0 0 0 0 0 0 0 0 0 0 0 0 0 0 0 0 0 0 0 0 0 0 0 0 0 0 0
0 0 0 0 0 0 0 0 0 0 0 0 0 0 0 0 0 0 0 0 0 0 0 0 0 0 0 0 0 0 0 0 0 0 0 0 0 0 0 0 0 0 0 0
0 0 0 0 0 0 0 0 0 0 0 0 0 0 0 0 0 0 0 0 0 0 0 0 0 0 0 0 0 0 0 0 0 0 0 0 0 0 0 0 0 0 0 0
0 0 0 0 0 0 0 0 0 0 0 0 0 0 0 0 0 0 0 0 0 0 0 0 0 0 0 0 0 0 0 0 0 0 0 0 0 0 0 0 0 0 0 0
0 0 0 0 0 0 0 0 0 0 0 0 0 0 0 0 0 0 0 0 0 0 0 0 0 0 0 0 0 0 0 0 0 0 0 0 0 0 0 0 0 0 0 0

GEFSNGP_con_prob3kmehi_150.txt.gz
EHI
0 0 0 0 0 0 0 0 0 0 0 0 3 10 19 30 42 50 50 50 51 51 47 41 34 28 25 23 17 14 13 13 11 6 4 3 3 3 2 1 1 3 4 4
0 0 0 0 0 0 0 0 0 0 0 1 5 13 22 31 41 48 49 49 50 49 48 43 36 29 24 21 18 17 15 13 9 6 4 3 3 3 3 3 2 2 3 4
0 0 0 0 0 0 0 0 0 0 1 4 7 14 22 29 39 47 48 48 50 50 47 44 36 28 22 18 16 16 13 10 7 5 5 3 1 2 4 5 3 2 3 3
0 0 0 0 0 0 0 0 1 1 3 6 8 12 19 27 37 44 48 52 56 54 47 40 33 25 18 13 11 10 8 6 3 3 3 2 1 2 4 5 3 3 3 2
0 0 0 0 0 0 0 1 4 6 6 7 8 9 17 29 39 46 51 57 60 55 46 38 31 24 17 11 7 6 5 3 2 1 2 2 1 1 3 3 2 2 2 1
0 0 0 0 0 0 0 3 8 11 11 11 11 13 22 35 45 52 58 61 59 51 42 35 31 26 20 13 8 6 5 5 3 3 2 1 0 0 2 2 1 1 1 0
0 0 0 1 1 2 2 5 11 15 16 17 20 25 33 42 50 59 63 61 55 47 38 34 32 28 23 15 9 6 7 7 6 4 2 1 0 1 2 2 1 1 1 0
0 0 0 1 3 5 8 12 16 21 23 24 27 31 36 42 49 58 60 55 49 43 39 35 32 28 22 14 8 6 8 8 6 4 3 2 1 2 3 3 3 2 2 1
0 0 0 1 4 8 15 20 23 25 26 26 26 28 31 35 40 46 47 46 43 40 37 34 31 26 19 11 7 6 7 6 5 5 5 4 3 3 3 2 2 2 2 1
0 0 2 3 6 11 18 24 25 24 24 23 24 26 27 30 33 34 36 36 35 33 30 27 24 20 14 9 7 7 6 5 6 7 6 5 4 3 2 1 1 1 1 1
2 3 5 8 11 14 18 20 20 20 21 22 26 28 27 27 29 31 31 30 27 24 21 17 14 12 9 7 7 8 6 5 6 7 5 5 4 3 2 1 0 0 1 2
6 6 8 10 12 13 14 16 17 18 20 24 28 29 27 27 28 29 27 24 20 17 14 10 7 6 6 6 7 8 6 5 5 4 4 4 3 2 1 1 0 0 1 1
7 7 7 8 8 9 11 13 15 17 19 22 23 24 24 24 24 23 20 17 14 12 10 8 5 4 4 4 5 6 4 3 3 3 3 3 3 2 1 0 0 0 0 0
4 4 4 5 6 7 9 11 12 14 15 15 15 15 16 16 16 15 14 12 10 7 6 5 3 2 2 2 3 3 2 1 1 2 3 3 3 2 1 0 0 0 0 0
1 2 3 4 4 5 6 8 8 8 7 8 9 9 8 8 9 10 9 8 6 4 4 3 2 1 1 1 1 1 0 0 0 1 2 2 2 1 0 0 0 0 0 0
1 2 3 4 4 4 4 4 4 2 2 3 5 6 6 6 6 7 6 5 4 3 3 2 1 0 0 0 0 0 0 0 0 0 1 1 1 0 0 0 0 0 0 0
0 1 2 4 4 3 3 3 2 1 0 0 2 4 6 6 6 6 4 3 2 2 1 1 1 0 0 0 0 0 0 0 0 0 0 0 0 0 0 0 0 0 0 0
0 0 1 1 2 2 2 3 3 2 1 1 1 2 4 5 5 4 2 1 1 1 0 0 0 0 0 0 0 0 0 0 0 0 0 0 0 0 0 0 0 0 0 0
0 0 0 0 0 1 2 4 4 3 2 1 1 1 2 3 3 2 0 0 0 0 0 0 0 0 0 0 0 0 0 0 0 0 0 0 0 0 0 0 0 0 0 0
0 0 0 0 0 0 2 4 4 3 2 1 1 1 1 1 1 0 0 0 0 0 0 0 0 0 0 0 0 0 0 0 0 0 0 0 0 0 0 0 0 0 0 0
0 0 0 0 0 0 1 2 2 2 2 2 1 0 0 0 0 0 0 0 0 0 0 0 0 0 0 0 0 0 0 0 0 0 0 0 0 0 0 0 0 0 0 0
0 0 0 0 0 0 0 0 1 1 1 2 1 0 0 0 0 0 0 0 0 0 0 0 0 0 0 0 0 0 0 0 0 0 0 0 0 0 0 0 0 0 0 0
0 0 0 0 0 0 0 0 0 0 1 1 1 0 0 0 0 0 0 0 0 0 0 0 0 0 0 0 0 0 0 0 0 0 0 0 0 0 0 0 0 0 0 0
0 0 0 0 0 0 0 0 0 0 0 1 1 1 0 0 0 0 0 0 0 0 0 0 0 0 0 0 0 0 0 0 0 0 0 0 0 0 0 0 0 0 0 0
0 0 0 0 0 0 0 0 0 0 1 1 2 2 1 0 0 0 0 0 0 0 0 0 0 0 0 0 0 0 0 0 0 0 0 0 0 0 0 0 0 0 0 0
0 0 0 0 0 0 0 0 0 1 2 2 2 2 1 0 0 0 0 0 0 0 0 0 0 0 0 0 0 0 0 0 0 0 0 0 0 0 0 0 0 0 0 0
0 0 0 0 0 0 0 0 1 2 3 3 2 1 1 0 0 0 0 0 0 0 0 0 0 0 0 0 0 0 0 0 0 0 0 0 0 0 0 0 0 0 0 0

GEFSNGP_con_prob3kmehi_156.txt.gz
EHI
0 0 0 0 0 0 0 0 0 1 3 5 8 13 20 29 42 57 65 65 68 73 74 74 72 68 60 52 42 34 29 28 27 26 25 23 21 19 19 21 20 16 12 10
0 0 0 0 0 0 0 0 0 1 4 8 11 16 22 32 45 57 65 68 70 72 72 72 71 67 60 52 43 35 30 28 28 27 26 23 21 20 19 20 18 14 11 9
0 0 0 0 0 0 0 1 1 4 7 11 15 18 22 32 44 54 65 72 73 72 72 71 69 65 58 50 42 37 32 29 27 26 24 21 19 18 17 14 13 11 10 9
0 0 0 0 1 1 3 7 9 11 13 13 15 19 23 30 41 53 66 74 74 73 72 72 69 62 53 45 38 34 29 24 24 24 21 18 17 16 13 9 8 8 9 9
0 0 0 2 4 4 7 15 20 21 20 18 17 19 26 35 45 58 69 73 74 72 71 72 69 60 49 39 32 27 23 21 21 21 19 16 15 14 11 8 7 7 8 9
0 0 1 4 7 7 10 19 28 31 31 31 29 29 36 45 53 63 71 73 72 72 72 73 70 61 49 38 30 25 23 23 22 20 17 15 14 12 10 9 8 7 7 8
0 1 3 7 9 12 18 28 36 40 43 45 46 46 48 53 57 64 71 74 72 72 73 73 70 62 52 42 33 27 24 23 21 17 13 12 11 11 11 10 9 8 8 6
1 4 9 15 17 21 31 39 43 45 47 51 54 55 56 57 59 64 71 74 72 71 71 68 64 58 51 44 36 28 24 22 20 14 9 7 8 10 11 10 8 8 7 5
6 10 16 20 22 26 31 38 42 43 44 47 51 53 54 57 60 64 68 70 68 67 64 61 56 51 46 41 35 29 26 23 20 15 10 8 7 8 9 8 7 6 5 4
9 12 16 20 21 22 25 29 34 36 37 40 43 45 47 53 59 62 64 63 61 58 55 52 46 40 38 35 31 29 27 24 20 16 11 10 8 6 6 6 6 4 3 1
11 11 13 16 18 20 23 26 28 28 31 33 35 37 39 44 50 53 55 54 51 48 47 44 37 31 29 29 27 26 25 22 17 13 10 8 6 4 3 3 3 3 2 1
15 14 12 13 15 17 21 24 24 23 25 26 28 30 30 32 35 38 41 41 39 38 38 35 30 25 24 23 22 22 21 18 13 10 8 6 4 3 2 1 1 1 1 0
14 12 10 11 14 15 18 20 20 19 18 17 19 22 22 23 26 28 29 29 29 29 28 26 22 20 20 19 18 18 17 13 9 7 6 5 4 3 3 2 1 0 0 0
6 5 6 10 13 14 14 14 15 15 14 12 13 15 16 18 21 22 21 22 22 21 19 17 15 15 15 14 14 15 12 7 4 3 3 2 3 3 3 3 2 0 0 0
2 3 4 7 10 10 10 11 12 11 11 10 10 10 11 12 15 16 15 15 16 15 14 13 12 11 10 9 9 9 6 3 1 1 1 1 1 1 1 2 1 0 0 0
2 2 3 5 6 7 7 9 9 8 7 7 7 8 9 11 11 11 11 12 13 13 13 12 10 7 5 5 5 4 3 2 2 2 1 0 0 0 0 0 0 0 0 0
1 1 2 3 4 4 5 6 6 5 5 5 5 7 9 10 9 8 8 9 11 12 11 10 7 5 3 3 3 3 3 2 1 1 1 0 0 0 0 0 0 0 0 0
0 0 0 1 1 2 3 4 4 4 4 5 5 6 8 8 8 7 7 7 8 9 8 7 6 4 3 3 3 3 2 1 0 0 0 0 0 0 0 0 0 0 0 0
0 0 0 0 0 1 2 3 3 4 5 5 5 5 7 8 8 7 6 6 6 6 6 5 4 3 3 3 3 2 1 1 0 0 0 0 0 0 0 0 0 0 0 0
1 1 0 0 0 0 1 2 3 3 4 3 3 4 6 7 7 6 5 6 6 5 5 3 2 2 2 2 1 1 0 0 0 0 0 0 0 0 0 0 0 0 0 0
1 1 0 0 0 0 0 1 2 3 3 2 1 2 4 5 3 2 3 4 4 3 2 1 0 1 1 1 0 0 0 0 0 0 0 0 0 0 0 0 0 0 0 0
2 1 0 0 0 0 1 1 2 3 4 2 1 0 2 2 1 1 2 3 3 1 0 0 0 0 0 0 0 0 0 0 0 0 0 0 0 0 0 0 0 0 0 0
2 1 1 1 1 1 1 1 1 3 4 4 2 2 3 3 3 2 2 2 2 1 0 0 0 0 0 0 0 0 0 0 0 0 0 0 0 0 0 0 0 0 0 0
1 1 1 2 2 2 1 1 1 3 5 5 4 3 4 5 5 3 1 1 1 0 0 0 0 0 0 0 0 0 0 0 0 0 0 0 0 0 0 0 0 0 0 0
0 0 1 2 2 1 1 3 3 4 6 5 3 2 3 4 4 2 1 0 0 0 0 0 0 0 0 0 0 0 0 0 0 0 0 0 0 0 0 0 0 0 0 0
0 0 0 1 1 1 2 4 4 4 5 5 3 2 2 3 3 3 2 1 0 0 0 0 0 0 0 0 0 0 0 0 0 0 0 0 0 0 0 0 0 0 0 0
0 0 0 0 0 0 1 2 4 4 4 4 4 3 3 3 3 3 2 1 0 0 0 0 0 0 0 0 0 0 0 0 0 0 0 0 0 0 0 0 0 0 0 0

GEFSNGP_con_prob3kmehi_162.txt.gz
EHI
0 0 0 0 0 0 0 0 0 1 3 5 12 22 29 34 37 39 43 51 53 50 48 44 41 40 35 27 20 16 15 13 11 9 6 4 2 3 4 4 4 4 4 3
0 0 0 0 0 1 2 3 3 3 5 8 14 23 30 35 39 41 45 50 54 55 53 47 42 38 33 26 18 12 11 11 9 7 5 3 2 2 3 3 3 3 2 1
0 0 0 0 1 4 9 11 11 10 12 16 21 27 33 39 43 45 46 50 55 58 56 48 40 35 30 24 16 9 6 7 6 5 4 3 3 3 3 3 2 1 0 0
0 0 0 0 1 6 13 19 20 21 25 27 30 35 39 43 47 48 47 49 55 57 54 47 39 33 27 22 16 9 5 4 5 4 5 5 6 5 3 1 1 0 0 0
0 0 0 1 3 7 14 22 28 31 35 38 41 43 43 44 49 52 49 50 53 55 54 48 40 33 27 22 16 9 4 3 4 6 7 7 7 5 2 0 0 0 0 0
0 0 1 4 7 9 13 21 29 34 38 43 47 47 42 41 50 55 54 54 54 54 53 47 39 32 27 21 15 9 6 5 6 7 8 6 5 2 0 0 0 0 0 0
0 0 2 7 9 10 12 21 30 34 39 45 49 47 42 42 49 56 58 56 53 50 47 42 36 30 24 18 14 10 8 7 7 7 5 3 1 0 0 0 0 0 0 0
0 0 2 6 7 7 12 22 31 36 39 44 47 45 44 46 48 52 54 52 48 45 42 38 34 28 21 15 12 10 8 7 6 4 2 0 0 0 0 0 0 0 0 0
2 2 3 5 6 9 14 22 29 33 35 39 41 41 42 45 45 45 46 45 43 42 40 35 29 23 17 13 10 8 6 5 4 2 1 0 0 0 0 0 0 0 0 0
5 5 7 8 10 14 19 23 25 26 28 32 33 32 33 36 37 36 36 36 37 37 34 29 22 17 14 11 9 7 6 5 3 2 0 0 0 0 0 0 0 0 0 0
6 7 9 12 14 17 22 25 23 22 21 22 22 22 22 25 27 26 26 27 28 27 25 20 16 13 13 11 8 6 5 5 4 2 0 0 0 0 0 0 0 0 0 0
4 5 7 12 13 15 19 21 20 18 14 12 13 13 14 16 18 19 20 21 20 18 16 14 12 11 11 10 7 5 5 4 3 1 0 0 1 0 0 0 0 0 0 0
2 2 6 10 12 12 13 14 14 11 8 7 8 10 11 13 15 16 16 15 13 12 12 11 11 10 8 7 6 5 5 4 3 1 0 0 0 0 0 0 0 0 0 0
1 2 4 7 8 7 7 8 8 7 6 5 7 9 10 11 12 12 10 10 10 10 11 11 10 8 7 6 6 6 6 5 4 2 0 0 0 0 0 0 0 0 0 0
0 1 1 3 3 3 2 3 4 4 5 5 5 7 8 8 8 6 6 7 9 10 10 9 9 7 5 5 5 6 6 5 3 1 0 0 0 0 0 0 0 0 0 0
0 0 0 1 1 1 0 1 2 3 4 4 4 5 6 6 5 4 4 7 8 9 9 8 7 7 5 4 5 6 6 5 2 0 0 0 0 0 0 0 0 0 0 0
0 0 0 0 1 0 0 0 1 1 2 3 3 4 4 4 4 3 4 5 7 7 7 6 6 5 4 4 4 5 5 3 1 0 0 0 0 0 0 0 0 0 0 0
0 0 0 0 1 0 0 0 0 0 1 2 2 2 2 3 3 3 3 4 6 6 6 5 4 4 3 3 3 4 4 3 1 1 0 0 0 0 0 0 0 0 0 0
0 0 0 0 0 0 0 0 0 0 0 1 1 1 1 1 2 3 3 4 5 6 6 5 4 3 3 3 3 3 3 3 2 1 0 0 0 0 0 0 0 0 0 0
0 0 0 0 0 0 0 0 0 0 0 0 0 0 0 1 2 2 3 3 4 4 5 4 3 3 3 3 3 3 3 3 2 1 0 0 0 0 0 0 0 0 0 0
0 0 0 0 0 0 0 0 0 0 0 0 0 0 0 1 1 1 1 2 1 1 2 2 2 3 3 3 3 3 3 2 1 0 0 0 0 0 0 0 0 0 0 0
0 0 0 0 0 0 0 0 0 0 0 0 0 0 0 1 1 0 0 0 0 0 0 1 1 1 2 2 2 2 2 1 0 0 0 0 0 0 0 0 0 0 0 0
0 0 0 0 0 0 0 0 0 0 0 0 0 0 0 0 0 0 0 0 0 0 0 0 0 0 1 1 1 1 1 0 0 0 0 0 0 0 0 0 0 0 0 0
0 0 0 0 0 0 0 0 0 0 0 0 0 0 0 0 0 0 0 0 0 0 0 0 0 0 0 0 0 0 0 0 0 0 0 0 0 0 0 0 0 0 0 0
0 0 0 0 0 0 0 0 0 0 0 0 0 1 0 0 0 0 0 0 0 0 0 0 0 0 0 0 0 0 0 0 0 0 0 0 0 0 0 0 0 0 0 0
0 0 0 0 0 0 0 0 0 0 0 0 0 0 0 0 0 0 0 0 0 0 0 0 0 0 0 0 0 0 0 0 0 0 0 0 0 0 0 0 0 0 0 0
0 0 0 0 0 0 0 0 0 0 0 0 0 0 0 0 0 0 0 0 0 0 0 0 0 0 0 0 0 0 0 0 0 0 0 0 0 0 0 0 0 0 0 0

GEFSNGP_con_prob3kmehi_168.txt.gz
EHI
0 0 1 1 1 1 1 1 0 0 0 1 4 7 9 11 16 19 19 19 23 27 29 27 22 18 14 11 10 8 5 4 3 4 4 4 3 2 3 3 3 1 0 0
0 0 1 2 2 2 2 1 0 0 1 4 7 11 12 15 21 23 22 23 25 27 27 25 22 17 13 10 8 7 6 4 3 4 4 5 4 3 3 3 3 2 1 1
0 0 1 2 1 2 3 2 2 2 5 8 12 14 15 18 24 26 26 27 28 27 24 22 21 16 11 7 5 6 6 5 4 4 4 4 5 4 3 3 3 3 2 2
0 0 0 0 1 3 5 5 4 6 10 13 15 18 18 19 22 24 25 27 27 25 21 19 19 16 10 6 4 4 4 5 5 4 4 4 4 3 3 3 3 2 1 1
0 0 0 0 1 4 6 6 6 7 11 15 18 20 22 22 21 21 22 24 24 22 18 16 15 14 11 7 4 3 3 4 5 6 5 4 3 2 2 3 2 1 0 0
0 0 0 1 1 3 4 5 6 6 9 14 17 19 23 25 23 21 22 23 24 22 17 14 14 15 14 9 6 4 3 3 4 5 6 6 4 3 2 1 0 0 0 0
0 0 0 2 2 1 2 5 8 8 9 14 18 20 24 27 25 23 23 24 24 23 18 15 14 16 15 10 7 5 4 3 3 4 4 4 3 2 1 0 0 0 0 0
0 0 0 1 2 1 2 6 9 11 13 18 24 28 30 28 25 23 23 23 25 22 18 16 16 16 13 9 6 4 3 3 2 1 2 2 1 1 1 0 0 0 0 0
1 1 2 3 3 3 4 6 8 11 16 20 26 30 30 26 22 22 23 22 22 21 17 15 15 14 10 7 6 5 3 2 1 1 1 1 1 0 0 0 0 0 0 0
5 5 6 7 6 5 5 7 9 11 15 19 21 22 21 20 20 21 22 20 20 19 16 14 11 8 6 5 6 6 4 2 1 1 2 2 1 0 0 1 0 0 0 0
6 6 7 7 7 7 8 9 11 12 13 15 16 15 13 13 15 18 19 19 19 18 14 10 7 4 2 3 5 5 3 1 1 2 3 2 1 0 0 0 0 0 0 0
2 3 3 3 4 6 8 9 10 11 11 11 11 11 9 9 10 12 13 15 16 15 11 7 4 2 1 1 2 2 1 0 1 3 3 2 1 0 0 0 0 0 0 0
1 1 1 1 2 4 6 6 7 8 9 8 8 7 7 7 7 7 8 9 11 10 6 4 3 1 0 0 0 0 0 0 2 3 3 1 0 0 0 0 0 0 0 0
2 2 2 2 1 2 2 3 4 5 6 7 7 7 7 7 6 5 5 6 6 5 4 3 1 1 0 0 0 0 0 0 1 3 2 1 0 0 0 0 0 0 0 0
1 1 1 1 1 0 0 1 2 3 4 5 7 8 8 8 7 4 4 5 4 3 3 2 1 1 1 0 0 0 0 0 1 2 2 1 0 0 0 0 0 0 0 0
0 0 0 0 0 0 0 1 2 3 3 4 5 7 7 7 6 4 3 3 3 2 2 2 1 2 1 0 0 0 0 0 1 2 2 1 0 0 0 0 0 0 0 0
0 0 0 0 0 0 0 0 1 2 2 3 3 3 4 5 4 3 1 1 1 2 1 1 0 1 1 0 0 0 0 0 0 1 1 1 0 0 0 0 0 0 0 0
0 0 0 0 0 0 0 0 0 1 1 1 1 1 1 2 3 2 1 0 1 2 1 0 0 0 0 1 1 2 1 1 0 0 0 0 0 0 0 0 0 0 0 0
0 0 0 0 0 0 0 0 0 0 0 0 0 0 0 1 1 1 0 0 1 1 1 0 0 0 0 1 2 3 3 2 1 0 0 0 0 0 0 0 0 0 0 0
0 0 0 0 0 0 0 0 0 0 0 0 0 0 0 0 0 0 0 0 0 0 0 0 0 0 0 1 2 3 3 2 1 0 0 0 0 0 0 0 0 0 0 0
0 0 0 0 0 0 0 0 0 0 0 0 0 0 0 0 0 0 0 0 0 0 0 1 1 0 0 1 1 2 2 2 1 0 0 0 0 0 0 0 0 0 0 0
0 0 0 0 0 0 0 0 0 0 0 0 0 0 0 0 0 0 0 0 0 0 0 1 1 0 0 1 1 1 1 1 0 0 0 0 0 0 0 0 0 0 0 0
0 0 0 0 0 0 0 0 0 0 0 0 0 0 0 0 0 0 0 0 0 0 0 1 1 0 1 1 1 0 1 0 0 0 0 0 0 0 0 0 0 0 0 0
0 0 0 0 0 0 0 0 0 0 0 0 0 0 0 0 0 0 0 0 0 0 0 0 0 0 1 1 1 0 0 0 0 0 0 0 0 0 0 0 0 0 0 0
0 0 0 0 0 0 0 0 0 0 0 0 0 0 0 0 0 0 0 0 0 0 0 0 0 0 0 0 0 0 0 0 0 0 0 0 0 0 0 0 0 0 0 0
0 0 0 0 0 0 0 0 0 0 0 0 0 0 0 0 0 0 0 0 0 0 0 0 0 0 0 0 0 0 0 0 0 0 0 0 0 0 0 0 0 0 0 0
0 0 0 0 0 0 0 0 0 0 0 0 0 0 0 0 0 0 0 0 0 0 0 0 0 0 0 0 0 0 0 0 0 0 0 0 0 0 0 0 0 0 0 0

GEFSNGP_con_prob3kmehi_174.txt.gz
EHI
0 0 0 0 0 0 0 0 0 0 0 3 6 8 11 20 34 46 53 56 60 66 69 67 61 53 45 41 41 38 32 26 24 21 19 18 18 18 17 15 11 8 6 4
0 0 0 0 0 0 0 0 0 0 1 5 9 10 11 18 30 42 51 56 61 68 71 69 63 57 50 44 40 38 32 26 22 20 18 16 14 14 14 13 11 9 6 5
0 0 0 0 0 0 0 0 0 1 3 7 11 14 15 17 24 35 46 56 64 69 73 72 66 60 53 45 41 37 31 25 20 17 16 13 9 8 10 11 11 11 9 7
0 0 0 1 1 1 1 2 2 4 5 8 13 17 19 21 26 35 44 54 62 67 72 73 68 59 50 44 42 37 30 24 18 14 13 11 9 7 9 11 13 13 12 11
0 0 0 1 2 3 3 5 7 9 11 14 17 18 21 29 38 45 48 53 59 65 70 71 66 57 49 44 41 35 29 24 19 13 11 11 12 12 13 14 15 16 15 13
0 0 0 1 2 3 4 8 14 17 19 24 25 25 29 39 49 56 56 56 60 66 69 68 64 58 52 46 39 33 27 23 19 14 11 11 14 16 16 16 16 17 15 12
0 0 1 3 4 5 9 17 23 24 25 29 34 39 43 49 54 58 57 55 59 64 66 64 60 57 52 45 38 32 26 21 18 15 11 11 14 16 16 15 14 14 13 11
1 2 6 10 12 15 22 31 34 31 30 33 39 45 49 51 53 54 53 51 53 57 60 58 54 51 49 44 39 33 26 21 18 15 11 11 14 15 14 13 11 10 9 8
5 7 11 17 23 29 34 39 39 37 35 34 35 39 42 44 47 49 50 49 49 51 52 52 49 48 47 45 40 34 28 23 20 18 16 14 14 13 11 10 9 7 5 4
12 14 17 23 29 33 37 39 40 40 37 32 29 31 32 33 37 42 45 46 47 45 45 45 45 45 45 43 39 34 29 25 23 22 19 15 12 10 9 8 7 5 3 2
18 20 22 24 26 29 32 35 37 38 34 28 24 24 24 25 27 32 36 39 40 39 37 36 36 36 37 36 34 31 27 23 19 18 15 12 11 9 6 5 5 4 3 2
19 20 22 22 22 23 25 28 30 30 28 23 20 20 21 21 22 24 27 30 31 31 28 26 25 26 27 26 25 25 22 17 13 9 7 8 9 8 5 4 3 2 1 1
16 16 16 17 17 16 18 20 22 22 21 19 17 16 18 18 17 18 21 23 24 24 21 19 18 20 20 18 19 20 17 15 12 8 6 5 6 5 4 3 2 1 0 0
11 11 12 13 12 11 11 12 13 14 14 12 11 11 12 13 12 12 14 17 18 18 16 13 12 13 14 13 14 15 14 12 13 11 7 5 4 3 3 3 3 2 1 0
10 10 10 10 9 8 7 6 7 7 6 5 6 7 7 8 9 9 9 10 12 13 11 10 8 8 9 9 9 11 10 9 10 9 7 5 3 2 3 3 3 3 2 1
10 9 8 7 6 5 4 4 4 3 2 2 4 5 5 6 8 8 8 8 9 8 8 8 7 6 6 6 7 8 8 7 6 6 5 5 3 1 1 2 2 3 3 2
9 8 6 5 4 3 3 3 2 1 0 1 4 5 4 4 6 7 7 8 8 6 5 6 6 5 4 4 5 6 6 4 3 2 3 3 3 1 0 1 1 1 2 2
6 5 4 3 3 3 3 2 1 0 0 1 3 4 3 3 4 5 6 7 7 6 4 4 4 4 3 3 4 4 3 2 0 0 1 2 2 1 0 0 0 0 1 1
3 3 3 3 3 3 2 1 0 0 0 0 1 2 3 3 3 4 5 6 6 6 4 3 2 2 2 3 3 3 3 1 1 1 2 2 2 2 1 0 0 0 0 0
1 2 2 2 2 1 1 0 0 0 0 0 0 1 2 3 3 3 4 6 6 4 3 2 1 1 1 1 2 3 3 3 2 3 3 3 3 2 1 0 0 0 0 0
0 1 1 1 1 0 0 0 0 0 0 0 0 0 1 2 3 3 4 5 4 2 1 1 0 0 0 0 1 1 2 3 3 3 3 2 3 3 1 0 1 1 0 0
0 0 0 0 0 0 0 0 0 0 0 0 0 0 0 1 2 3 3 4 3 1 0 0 0 0 0 0 0 0 1 1 2 3 3 3 3 3 2 2 2 2 1 1
0 0 0 0 0 0 0 0 0 0 0 0 0 0 0 0 1 2 2 2 1 0 0 0 0 0 0 0 0 0 0 0 1 1 2 2 3 3 3 3 3 3 2 2
0 0 0 0 0 0 0 0 0 0 0 0 0 0 0 0 0 1 1 1 0 0 0 0 0 0 0 0 0 0 0 0 0 0 1 1 2 2 2 2 2 2 2 1
0 0 0 0 0 0 0 0 0 0 0 0 0 0 0 0 0 0 0 0 0 0 0 0 0 0 0 0 0 0 0 0 0 0 0 1 1 1 1 1 1 1 1 0
0 0 0 0 0 0 0 0 0 0 0 0 0 0 0 0 0 0 0 0 0 0 0 0 0 0 0 0 0 0 0 0 0 0 0 1 1 0 0 0 0 0 0 0
0 0 0 0 0 0 0 0 0 0 0 0 0 0 0 0 0 0 0 0 0 0 0 0 0 0 0 0 0 0 0 0 0 0 0 0 0 0 0 0 0 0 0 0

GEFSNGP_con_prob3kmehi_180.txt.gz
EHI
0 0 0 0 0 0 0 0 1 4 6 9 13 17 22 34 48 56 61 66 76 83 87 88 86 82 78 73 70 67 63 61 55 46 38 34 31 27 27 28 28 27 23 18
0 0 0 0 0 0 0 0 1 4 9 14 18 22 28 35 46 56 62 68 76 83 87 88 86 81 77 74 71 67 63 60 55 45 36 32 29 26 26 27 27 26 23 19
0 0 0 0 1 1 1 2 4 7 13 21 27 32 37 41 46 55 65 71 78 84 87 87 86 82 77 74 71 68 65 61 55 46 37 34 30 26 25 26 26 25 23 21
0 0 0 1 2 2 2 6 9 12 17 25 32 38 45 51 54 58 66 74 79 82 84 85 85 83 78 72 69 68 66 61 54 46 41 38 34 30 29 28 27 26 25 25
0 0 0 2 3 3 3 8 12 15 19 22 26 35 47 57 62 64 67 71 76 78 80 83 84 83 78 73 69 67 64 59 51 44 40 37 34 32 32 30 28 27 27 27
0 0 1 2 3 2 5 11 16 20 24 26 29 41 55 64 66 66 67 69 73 76 79 82 83 82 78 75 73 68 63 56 48 42 37 34 32 30 29 30 28 27 26 24
0 1 3 5 5 7 16 25 30 34 38 43 50 60 67 70 71 69 68 70 74 76 78 81 81 79 77 75 72 68 62 55 48 42 37 33 30 28 28 29 28 28 26 22
3 4 9 14 17 24 37 45 47 50 54 60 66 69 69 68 67 67 66 68 72 75 77 79 79 76 73 70 67 64 59 53 48 43 35 30 29 27 26 26 26 26 24 20
10 12 19 27 34 42 50 55 56 59 63 65 65 64 60 57 57 58 59 62 68 72 74 74 73 71 68 64 62 58 55 51 46 40 34 30 28 25 23 22 22 22 18 14
21 23 27 33 40 45 47 51 55 58 60 60 59 56 52 49 48 50 52 55 60 65 68 68 67 65 61 58 57 55 52 49 43 36 32 30 27 23 19 17 17 16 14 10
28 29 30 31 34 37 41 46 49 52 53 52 51 48 45 44 45 44 46 49 53 56 57 57 58 56 53 52 54 52 48 43 37 30 27 26 24 19 14 11 10 10 9 8
26 28 29 29 31 35 39 42 44 46 46 44 42 40 39 40 41 40 41 45 48 47 44 43 44 44 43 45 47 46 42 36 28 22 19 20 19 15 9 4 3 3 4 4
23 24 25 28 33 36 39 39 38 39 38 36 33 32 32 33 34 34 35 37 39 37 33 31 32 33 35 37 36 36 34 28 22 16 14 15 15 13 9 4 2 1 0 1
20 19 20 25 30 34 33 31 29 31 31 29 26 25 26 28 28 27 26 27 27 27 24 22 23 25 28 28 27 26 25 21 17 14 12 11 12 11 9 7 6 4 2 1
15 14 15 18 22 24 24 22 21 22 24 23 20 20 22 24 24 22 21 20 19 18 17 16 16 18 19 20 19 17 16 14 11 9 9 9 10 10 9 8 8 7 5 2
9 9 11 13 14 15 15 15 15 15 15 14 13 14 15 17 17 17 15 14 14 13 13 14 14 13 12 11 11 11 10 7 5 5 5 6 8 9 9 9 8 6 4 2
5 7 9 11 11 11 10 10 10 9 8 7 7 8 9 9 9 9 9 9 9 10 11 12 12 10 8 8 8 8 6 4 3 3 3 4 6 8 9 8 6 4 3 2
5 6 7 8 9 8 8 8 7 6 5 4 4 4 5 5 5 5 6 6 6 7 8 8 7 7 6 6 7 6 4 3 3 3 3 3 4 4 5 5 4 3 3 3
6 6 6 6 6 6 6 6 5 5 4 3 4 3 2 2 3 5 6 5 5 5 5 4 4 4 4 4 5 5 3 2 3 3 3 3 2 2 2 3 3 3 4 4
6 5 4 4 4 4 4 4 3 4 3 2 2 2 1 1 3 6 6 6 5 5 4 4 6 6 4 3 3 3 2 1 1 2 2 2 2 1 2 3 3 3 4 5
3 3 3 2 3 3 3 2 1 1 1 1 1 1 0 1 3 5 6 5 6 6 5 5 6 6 4 2 2 3 2 1 0 1 1 1 1 2 2 3 3 3 3 4
2 1 1 1 1 2 1 1 0 0 0 0 0 0 0 1 2 4 5 4 4 4 4 4 5 4 3 2 2 3 2 1 0 0 0 0 0 1 2 3 3 3 3 3
2 2 1 0 1 1 1 0 0 0 0 0 0 0 0 0 1 2 3 3 3 3 4 4 3 3 2 3 3 2 1 0 0 0 0 0 0 1 1 3 3 3 3 3
2 2 1 0 1 2 1 1 1 0 0 0 0 0 0 0 0 0 1 1 2 3 3 3 2 1 1 2 2 1 0 0 0 0 0 0 0 0 1 3 3 3 3 3
1 1 0 0 1 1 1 0 0 0 0 0 0 0 0 0 0 0 0 0 1 1 2 1 1 0 0 1 1 0 0 0 0 0 0 0 0 0 1 2 2 2 2 2
0 0 0 0 0 0 0 0 0 0 0 0 0 0 0 0 0 0 0 0 0 0 0 0 0 0 0 0 0 0 0 0 0 0 0 0 0 0 1 1 1 1 1 1
0 0 0 0 0 0 0 0 0 0 0 0 0 0 0 0 0 0 0 0 0 0 0 0 0 0 0 0 0 0 0 1 1 1 0 0 0 0 0 0 0 0 0 0

GEFSNGP_con_prob3kmehi_186.txt.gz
EHI
0 0 0 0 0 0 0 1 2 5 8 12 16 19 21 25 33 41 46 53 59 61 62 66 66 61 53 48 47 45 41 35 25 17 14 12 8 5 4 2 2 4 7 9
0 0 0 0 0 0 1 1 3 7 11 13 16 19 22 28 36 41 46 52 57 61 65 68 68 63 55 50 46 44 41 35 26 20 16 12 9 7 5 4 4 5 7 8
0 0 0 0 0 1 3 4 5 8 12 14 16 19 24 31 36 40 43 49 55 60 66 68 67 65 60 55 49 44 41 36 28 21 15 10 8 7 7 7 7 8 8 8
0 0 0 0 0 3 8 10 8 7 10 13 16 21 28 33 35 37 40 45 51 56 62 65 64 63 62 59 54 48 42 35 28 21 14 9 7 7 8 9 8 8 7 6
0 0 0 0 1 4 12 16 13 10 12 15 19 25 31 35 37 39 42 44 47 51 56 60 60 58 57 58 57 52 43 35 29 24 18 12 9 9 9 10 9 7 5 3
0 0 0 1 2 4 11 15 15 16 19 20 20 24 31 37 41 44 46 45 46 48 51 56 57 54 52 52 52 49 41 34 30 26 21 15 11 10 10 10 9 8 5 2
0 0 0 2 4 5 6 10 15 21 23 23 22 25 33 40 44 46 47 49 49 48 47 49 52 52 51 48 44 40 37 32 28 25 20 14 10 10 10 9 7 6 5 4
0 0 0 3 5 5 5 9 17 24 26 27 31 35 39 43 45 45 47 49 49 47 43 43 46 49 50 45 38 33 31 28 23 20 16 12 9 9 9 7 5 4 4 4
3 3 4 7 9 8 9 14 21 27 30 34 40 43 43 44 43 42 42 44 46 44 41 40 42 46 46 41 35 31 28 24 20 17 14 12 11 9 8 6 4 3 3 3
8 8 9 12 13 13 14 17 22 26 30 37 41 42 41 41 39 36 36 38 41 41 40 39 40 42 39 35 32 29 25 21 18 15 13 12 11 9 7 5 4 3 3 4
9 9 11 12 13 15 17 19 21 23 27 34 39 38 37 35 33 30 30 32 34 36 36 34 34 34 31 28 28 25 22 19 16 14 12 11 10 7 5 3 3 2 3 3
6 6 8 9 10 13 16 17 19 21 25 31 36 35 32 30 27 25 26 26 26 27 27 25 24 23 21 20 21 21 19 16 14 12 10 9 8 6 3 1 1 1 1 1
4 5 7 7 8 10 13 14 17 20 23 27 32 31 28 26 23 22 23 22 20 18 16 14 13 13 13 13 14 16 15 13 11 10 9 8 8 6 3 1 0 0 0 0
5 6 7 7 7 8 9 11 14 17 20 23 25 24 23 21 19 18 17 15 13 10 7 6 6 6 7 7 7 9 10 10 8 8 8 7 7 6 4 2 1 0 0 0
5 6 6 7 8 8 8 9 12 14 15 16 16 16 15 14 12 10 7 6 5 4 3 3 3 3 4 4 4 5 6 7 7 6 5 5 4 4 3 3 1 0 0 0
4 4 5 7 8 8 8 9 11 11 10 8 7 7 7 7 5 3 1 0 1 2 3 3 3 3 3 3 3 3 4 5 6 5 3 1 1 1 1 2 1 1 0 0
3 3 4 6 8 8 7 7 7 7 4 2 1 1 2 1 1 0 0 0 0 1 1 2 3 3 3 3 3 4 4 4 5 4 1 0 0 0 0 1 1 1 1 1
4 4 4 5 6 7 5 3 2 2 1 0 0 0 0 0 0 0 0 0 0 0 0 1 2 3 3 3 4 4 4 3 4 3 1 0 0 0 0 0 0 0 0 0
3 3 3 2 3 3 2 0 0 0 0 0 0 0 0 0 0 0 0 0 0 0 0 0 1 2 3 3 3 4 3 3 3 1 0 0 0 0 0 0 0 0 0 0
2 2 1 1 0 0 0 0 0 0 0 0 0 0 0 0 0 0 0 0 0 0 0 0 0 1 3 3 3 3 3 3 2 1 0 0 0 0 0 0 0 0 0 0
1 0 0 0 0 0 0 0 0 0 0 0 0 0 0 0 0 0 0 0 0 0 0 0 0 1 2 3 3 3 3 3 2 1 0 0 0 0 0 0 0 0 0 0
0 0 0 0 0 0 0 0 0 0 0 0 0 0 0 0 0 0 0 0 0 0 0 0 0 1 2 2 3 3 3 3 2 1 0 0 0 0 0 0 0 0 0 0
0 0 0 0 0 0 0 0 0 0 0 0 0 0 0 0 0 0 0 0 0 0 0 0 0 2 2 2 2 2 2 2 2 1 0 0 0 0 0 0 0 0 0 0
0 0 0 0 0 0 0 0 0 0 0 0 0 0 0 0 0 0 0 0 0 0 0 0 0 1 2 1 1 1 0 1 1 0 0 0 0 0 0 0 0 0 0 0
0 0 0 0 0 0 0 0 0 0 0 0 0 0 0 0 0 0 0 0 0 0 0 0 0 0 0 0 0 0 0 0 0 0 0 0 0 0 0 0 0 0 0 0
0 0 0 0 0 0 0 0 0 0 0 0 0 0 0 0 0 0 0 0 0 0 0 0 0 0 0 0 0 0 0 0 0 0 0 0 0 0 0 0 0 0 0 0
0 0 0 0 0 0 0 0 0 0 0 0 0 0 0 0 0 0 0 0 0 0 0 0 0 0 0 0 0 0 0 0 0 0 0 0 0 0 0 0 0 0 0 0

GEFSNGP_con_prob3kmehi_192.txt.gz
EHI
0 0 0 0 0 0 0 0 0 0 1 1 1 0 1 6 13 17 19 24 30 34 35 36 38 40 39 35 34 33 29 24 18 12 9 7 7 8 8 7 6 4 3 3
0 0 0 0 0 0 0 0 0 0 0 1 1 1 2 7 15 19 20 23 26 31 35 37 39 42 41 38 36 36 33 28 22 15 10 8 7 7 7 6 5 4 3 3
0 0 0 0 0 0 0 0 0 0 0 1 2 3 2 7 16 20 21 21 22 25 30 34 38 40 42 41 39 37 34 29 24 18 13 10 8 7 7 6 4 3 3 3
0 0 0 0 0 0 0 0 0 0 2 3 3 3 3 7 15 20 19 19 19 21 26 31 35 38 40 42 40 36 31 25 21 18 16 12 10 8 7 6 4 3 3 3
0 0 0 0 0 0 0 0 1 2 4 5 4 4 3 7 15 19 18 18 20 24 29 33 35 36 39 40 38 35 29 22 18 16 16 15 12 10 9 6 4 3 3 3
0 0 0 0 0 0 0 1 1 4 6 6 5 5 6 10 17 20 19 20 23 27 32 36 36 35 36 36 35 32 27 21 17 16 17 16 13 10 8 6 5 4 3 3
0 0 0 0 0 0 0 0 1 4 7 7 7 7 11 16 20 22 21 21 25 30 34 37 38 37 35 33 31 29 24 20 16 15 16 13 10 6 4 3 3 3 3 2
0 0 0 0 0 0 0 1 1 4 7 8 8 10 16 20 23 24 22 21 26 32 34 35 38 39 36 31 28 27 24 19 15 13 11 8 5 3 2 2 2 2 2 1
2 1 1 1 2 2 2 2 2 3 7 9 9 10 15 20 22 22 21 22 27 31 31 31 34 36 34 30 28 28 25 20 15 12 9 5 3 3 3 3 3 3 2 1
5 5 4 4 4 5 4 4 3 3 7 8 7 8 12 17 20 20 21 23 27 29 27 26 29 32 31 29 29 29 25 20 16 14 11 6 3 3 4 5 5 4 3 2
5 6 6 5 5 5 6 5 3 3 6 6 6 7 11 15 18 19 20 22 25 26 24 23 24 26 26 26 27 28 24 20 17 15 11 6 4 3 3 4 5 4 3 2
2 4 4 4 4 4 5 4 3 4 5 4 6 9 12 13 15 16 17 17 20 22 22 21 21 22 21 22 23 23 21 19 16 13 9 6 5 4 3 3 3 2 1 2
1 2 3 3 3 3 4 3 3 4 5 4 6 9 10 9 11 11 11 12 16 18 19 18 17 17 16 16 15 15 15 16 15 12 8 6 5 4 3 1 1 0 0 1
0 1 2 2 2 3 4 4 4 5 6 6 7 8 7 6 8 9 8 10 13 15 14 12 11 10 11 10 9 8 9 10 11 10 7 4 4 3 1 0 0 0 0 0
0 0 1 1 2 3 4 5 6 6 6 6 6 6 5 5 7 8 7 8 10 10 8 6 4 4 5 6 6 6 6 6 7 6 3 1 1 1 0 0 0 0 0 0
0 0 0 1 3 3 4 5 6 5 5 4 4 4 4 5 5 5 5 5 5 5 4 2 0 0 1 2 3 4 4 4 3 3 1 0 0 0 0 0 0 0 0 0
0 0 1 2 3 3 3 4 3 3 4 4 2 1 2 2 2 1 1 2 2 2 2 1 0 0 0 0 1 2 3 3 2 3 2 1 0 0 0 0 0 0 0 0
1 1 1 3 3 2 3 3 1 2 3 3 1 0 0 0 0 0 0 1 1 1 1 0 0 0 0 0 0 1 2 3 3 3 3 2 1 0 0 0 0 0 0 0
2 2 3 3 3 3 3 2 1 0 1 1 0 0 0 0 0 0 0 0 0 0 0 0 0 0 0 0 0 0 1 2 3 3 3 3 2 1 0 0 0 0 0 0
1 2 2 2 2 2 2 1 0 0 0 0 0 0 0 0 0 0 0 0 0 0 0 0 0 0 0 0 0 0 0 1 2 2 3 3 3 2 1 0 0 0 0 0
0 1 1 1 1 1 1 0 0 0 0 0 0 0 0 0 0 0 0 0 0 0 0 0 0 0 0 0 0 0 0 0 1 1 1 3 3 3 2 1 0 0 0 0
0 0 0 0 0 0 0 0 0 0 0 0 0 0 0 0 0 0 0 0 0 0 0 0 0 0 0 0 0 0 0 0 0 0 1 2 3 3 3 2 1 0 0 0
0 0 0 0 0 0 0 0 0 0 0 0 0 0 0 0 0 0 0 0 0 0 0 0 0 0 0 0 0 0 0 0 0 0 0 1 2 3 3 2 1 0 0 0
0 0 0 0 0 0 0 0 0 0 0 0 0 0 0 0 0 0 0 0 0 0 0 0 0 0 0 0 0 0 0 0 0 0 0 0 1 1 2 2 1 0 0 0
0 0 0 0 0 0 0 0 0 0 0 0 0 0 0 0 0 0 0 0 0 0 0 0 0 0 0 0 0 0 0 0 0 0 0 0 0 0 1 1 0 0 0 0
0 0 0 0 0 0 0 0 0 0 0 0 0 0 0 0 0 0 0 0 0 0 0 0 0 0 0 0 0 0 0 0 0 0 0 0 0 0 0 0 0 0 0 0
0 0 0 0 0 0 0 0 0 0 0 0 0 0 0 0 0 0 0 0 0 0 0 0 0 0 0 0 0 0 0 0 0 0 0 0 0 0 0 0 0 0 0 0

GEFSNGP_con_prob3kmehi_198.txt.gz
EHI
0 0 0 0 0 0 0 0 0 0 1 4 6 9 16 24 29 31 30 31 36 42 46 51 55 57 59 59 58 59 60 58 53 48 45 42 38 36 33 29 25 24 21 16
0 0 0 0 0 0 0 0 0 0 1 3 4 8 16 23 26 28 28 29 34 41 48 53 55 57 58 60 60 60 60 60 56 52 47 43 38 34 32 29 27 26 22 18
0 0 0 0 0 0 0 0 0 1 1 2 3 7 14 18 21 23 25 28 32 39 49 56 56 55 57 60 61 61 61 61 58 53 47 42 36 32 29 27 26 25 23 20
0 0 0 0 0 0 0 0 2 3 4 3 4 7 11 15 17 20 24 28 33 38 46 54 56 54 55 58 60 61 63 63 58 51 45 40 36 32 29 27 25 24 23 22
0 0 0 0 0 0 0 1 4 6 6 6 6 7 10 15 19 23 26 29 34 37 42 49 54 54 54 55 57 60 63 62 58 51 45 41 37 33 30 29 28 25 21 19
0 0 0 0 0 0 0 2 5 7 8 10 11 12 15 19 24 28 31 31 32 36 41 48 53 54 53 53 54 56 59 58 55 51 47 44 40 36 32 30 28 23 18 15
0 0 0 1 3 3 4 6 9 11 12 14 17 20 23 25 28 32 33 32 32 36 42 48 52 52 52 52 51 51 52 51 50 48 46 44 43 39 32 27 24 18 13 11
0 0 2 4 7 9 10 12 14 16 17 18 19 22 24 27 30 32 32 33 34 38 43 46 48 49 50 51 49 48 47 45 43 43 42 42 43 39 31 24 20 16 12 11
1 2 4 7 10 12 13 15 15 18 20 18 17 19 22 26 29 31 31 31 34 37 39 40 42 43 45 48 48 47 45 42 39 38 39 39 39 35 29 23 19 16 14 13
2 3 4 8 11 12 13 13 14 17 19 18 17 18 20 23 26 28 28 28 30 31 32 33 35 38 40 42 46 46 44 41 36 33 32 33 33 30 25 22 18 15 14 14
3 3 4 7 10 11 12 13 13 14 17 17 16 16 16 19 21 21 22 22 24 25 25 26 30 34 37 40 42 42 40 37 31 26 24 24 24 22 18 16 14 12 11 11
2 3 5 7 8 10 12 13 13 14 15 15 12 11 12 15 16 17 17 18 18 19 19 21 24 29 34 37 38 38 36 31 25 20 17 16 17 15 12 9 7 6 6 6
4 5 6 7 8 9 11 11 11 12 13 11 8 7 8 12 15 16 17 16 15 15 16 16 19 24 28 31 32 33 31 25 20 16 13 13 13 13 10 6 4 3 2 2
5 7 8 9 11 10 9 9 9 9 8 6 4 5 8 11 14 16 17 15 14 14 15 15 16 21 24 25 26 27 25 20 16 14 13 12 12 13 11 8 6 5 3 1
6 7 9 10 12 10 8 7 7 7 4 2 2 5 8 10 11 14 15 14 13 13 13 14 16 19 21 21 21 20 18 15 14 14 13 12 13 13 12 10 9 8 6 3
5 6 7 8 9 7 6 6 6 5 2 1 2 4 6 7 8 9 10 10 10 10 11 13 15 16 16 16 16 14 12 11 11 12 13 13 12 11 10 10 9 8 7 4
2 3 4 4 3 3 4 5 6 4 2 2 3 5 6 6 6 7 7 7 7 9 10 12 13 12 12 11 10 9 8 8 7 9 11 11 9 8 8 8 6 5 4 4
0 1 1 1 0 1 2 4 5 4 3 3 4 5 6 6 6 6 6 6 7 9 9 9 9 9 8 7 6 5 5 4 4 5 6 6 5 5 5 5 4 3 3 3
1 1 0 0 0 0 1 1 2 3 3 4 4 4 4 4 5 6 7 7 7 7 6 5 5 6 5 4 3 3 2 1 1 2 2 2 1 2 2 2 2 2 2 2
3 2 1 1 1 1 0 0 0 1 2 4 5 5 4 3 4 6 7 6 5 3 2 2 2 3 2 1 1 1 1 0 0 0 0 0 0 0 0 1 1 1 1 1
2 2 2 2 2 1 1 1 1 1 2 4 5 4 3 3 3 4 4 4 3 2 1 1 1 1 0 0 0 0 0 0 0 0 0 0 0 0 0 0 0 0 0 0
0 1 1 1 1 2 2 2 2 2 2 3 3 3 2 2 1 1 1 2 2 1 0 0 0 0 0 0 0 0 0 0 0 0 0 0 0 0 0 0 0 0 0 0
0 0 0 1 1 2 3 3 3 3 1 1 1 1 1 1 0 0 0 1 1 0 0 0 0 0 0 0 0 0 0 0 0 0 0 0 0 0 0 0 0 0 0 0
0 0 0 1 2 3 3 3 3 2 1 0 0 0 0 0 0 0 0 0 0 0 0 0 0 0 0 0 0 0 0 0 0 0 0 0 0 0 0 0 0 0 0 0
0 0 0 1 1 2 2 2 1 1 0 0 0 0 0 0 0 0 0 0 0 0 0 0 0 0 0 0 0 0 0 0 0 0 0 0 0 0 0 0 0 0 0 0
0 0 0 0 0 1 1 1 0 0 0 0 0 0 0 0 0 0 0 0 0 0 0 0 0 0 0 0 0 0 0 0 0 0 0 0 0 0 0 0 0 0 0 0
0 0 0 0 0 0 0 0 0 0 0 0 0 0 0 0 0 0 0 0 0 0 0 0 0 0 0 0 0 0 0 0 0 0 0 0 0 0 0 0 0 0 0 0

GEFSNGP_con_prob3kmehi_204.txt.gz
EHI
0 0 0 0 0 0 0 0 1 3 8 17 25 30 34 40 45 49 51 50 53 59 63 62 62 65 68 68 68 68 69 68 66 65 64 63 62 61 60 54 46 41 38 36
0 0 0 0 0 0 0 0 0 3 10 18 26 31 35 40 46 50 51 52 56 62 64 63 61 62 65 68 69 70 69 68 67 66 65 63 62 61 60 55 48 42 38 35
0 0 0 0 0 0 0 0 1 4 12 20 26 32 36 40 45 47 46 48 54 60 64 62 59 58 62 67 70 71 69 66 66 66 65 63 61 60 59 55 51 44 38 35
0 0 0 0 0 0 0 1 3 7 13 21 27 31 34 37 41 42 41 43 48 53 55 55 54 55 59 63 66 67 66 65 65 65 63 60 58 57 56 55 54 49 41 37
0 0 0 1 1 1 1 2 6 11 17 23 27 29 31 33 36 38 40 44 47 47 46 46 49 52 56 58 61 62 62 63 64 63 59 55 54 54 54 55 55 50 42 37
0 0 1 3 3 2 3 7 14 19 23 27 29 29 30 33 36 40 44 47 48 45 41 42 46 49 50 53 56 57 58 59 61 60 56 52 52 52 53 54 51 45 39 35
0 1 3 7 8 9 13 19 25 27 28 31 33 34 35 37 41 44 46 48 48 46 42 40 43 45 47 49 52 52 53 55 56 54 51 50 50 51 52 51 45 39 37 36
2 4 9 14 16 19 25 28 29 29 30 33 36 38 39 41 43 44 44 45 46 46 42 39 41 43 45 48 50 49 49 52 51 48 47 47 49 49 47 44 39 36 36 37
6 8 14 18 18 20 23 25 26 26 28 32 35 37 39 41 43 43 42 42 42 42 40 38 40 43 46 48 47 47 47 46 45 44 45 45 45 42 39 37 35 33 33 35
6 9 12 12 12 11 13 17 20 22 24 28 32 34 36 38 41 42 40 39 38 37 36 37 40 44 47 47 44 44 44 42 41 41 42 40 38 35 31 30 30 30 31 32
5 6 6 5 6 7 9 14 17 19 21 24 27 29 30 32 36 37 36 34 33 33 34 35 38 43 44 43 42 43 42 39 38 37 37 35 32 28 24 21 21 22 24 25
7 6 4 5 6 7 10 14 17 19 20 21 21 22 23 25 28 30 30 29 29 30 32 33 35 36 36 36 38 40 38 36 35 33 31 30 26 21 16 12 9 10 12 13
8 6 5 5 7 8 11 15 19 20 21 20 18 18 19 20 22 24 25 26 26 27 28 28 28 28 27 28 32 35 34 33 31 28 26 23 20 17 13 9 5 4 4 3
6 5 5 5 7 9 10 13 17 20 19 18 16 15 16 17 19 20 20 21 21 21 22 21 20 21 21 22 27 31 30 29 27 24 21 18 16 15 14 11 8 6 3 1
5 5 6 6 8 9 9 11 14 16 16 15 13 12 12 15 18 19 17 14 13 14 16 16 16 18 19 19 22 25 25 23 21 19 16 15 14 13 12 11 9 8 6 4
5 6 7 7 8 8 8 8 9 11 12 11 11 11 12 14 17 17 13 10 9 11 14 15 16 18 18 18 20 21 20 16 14 13 12 12 12 12 11 9 8 8 8 7
5 6 6 7 7 7 6 5 4 5 6 7 9 10 11 13 14 13 10 8 8 11 14 14 15 17 17 16 18 18 16 12 9 8 9 10 11 12 11 9 7 8 8 8
4 4 3 4 5 4 4 3 2 1 2 4 7 9 10 10 11 9 8 7 8 10 12 13 12 13 14 14 14 14 13 9 6 5 6 7 9 10 9 8 8 7 7 6
2 3 3 3 4 4 3 2 2 2 3 3 5 8 9 9 9 8 7 7 8 10 12 12 10 9 10 11 11 11 9 6 3 3 3 3 5 6 6 5 5 5 5 4
1 3 3 3 4 4 4 4 4 4 3 2 4 6 8 9 8 7 7 6 7 9 10 10 7 7 7 7 7 6 5 3 2 1 1 1 1 2 2 2 1 2 2 2
1 1 1 2 3 4 4 5 5 4 2 2 4 7 8 8 7 6 6 5 4 5 6 6 6 5 5 4 3 2 1 1 1 1 0 0 0 0 0 0 0 0 0 0
0 0 0 1 2 3 3 4 3 2 2 3 6 8 7 7 7 6 5 3 1 2 4 4 3 3 2 1 0 0 0 0 0 0 0 0 0 0 0 0 0 0 0 0
1 1 2 2 2 2 2 1 1 1 1 3 5 5 5 5 5 4 2 1 0 1 2 3 1 0 0 0 0 0 1 1 0 0 0 0 0 0 0 0 0 0 0 0
4 4 4 3 2 1 1 0 0 0 0 1 1 2 2 3 3 2 0 0 0 0 1 1 0 0 0 0 0 1 2 2 1 0 0 0 0 0 0 0 0 0 0 0
5 5 4 2 1 0 0 0 0 0 0 0 0 0 0 1 1 0 0 0 0 0 0 0 0 0 0 0 1 2 2 2 1 0 0 0 0 0 1 1 0 0 0 0
4 3 2 0 0 0 0 0 0 0 0 0 0 0 0 0 0 0 0 0 0 0 0 0 0 0 0 0 1 1 1 1 0 0 0 0 0 0 1 1 0 0 0 0
3 1 0 0 0 0 0 0 0 0 0 0 0 0 0 0 0 0 0 0 0 0 0 0 0 0 0 0 0 1 0 0 0 0 0 0 0 0 1 1 0 0 0 0

GEFSNGP_con_prob3kmehi_210.txt.gz
EHI
0 0 0 0 0 0 0 0 1 4 11 20 27 31 33 35 35 33 31 31 33 35 35 34 33 32 32 34 36 38 36 30 28 29 28 26 25 23 17 12 11 11 14 15
0 0 0 0 0 0 0 0 2 6 13 20 27 31 32 34 33 30 29 30 32 34 34 33 33 34 33 32 33 37 36 31 28 29 30 31 31 28 21 15 12 12 13 14
0 0 0 0 1 1 2 2 5 10 16 24 29 31 31 32 30 27 26 27 29 30 31 30 29 32 32 29 29 34 37 33 31 31 34 37 37 33 27 21 17 14 12 12
0 0 0 1 2 4 5 6 10 13 19 26 31 32 31 29 28 25 23 23 23 24 25 24 24 27 31 31 30 34 37 35 34 34 36 38 38 35 31 26 22 18 15 13
0 0 0 1 3 5 7 11 14 16 20 27 32 32 29 26 26 24 22 21 19 19 20 21 22 26 31 33 34 36 38 37 36 35 35 36 37 35 32 29 25 22 18 17
0 0 1 3 5 5 8 13 17 19 22 27 30 29 25 25 26 26 25 24 22 21 22 23 25 28 31 33 36 37 37 36 35 34 32 32 33 33 32 29 26 22 20 19
0 0 1 3 6 6 9 13 17 20 23 26 26 24 24 26 27 28 28 29 28 28 28 27 27 30 31 32 34 34 32 30 31 30 28 28 30 31 29 28 26 23 20 19
0 0 1 3 4 6 8 11 13 17 21 23 23 23 25 27 27 27 28 30 30 30 29 28 28 29 30 29 29 28 26 24 24 26 27 28 28 28 28 27 26 24 21 19
1 1 2 3 3 5 7 8 9 12 17 20 22 23 23 24 23 24 25 27 27 27 25 25 26 27 27 25 23 22 21 20 20 23 26 28 26 25 25 25 24 22 21 19
3 3 5 6 5 6 7 8 8 10 13 16 19 20 19 19 18 19 20 21 22 21 20 21 23 24 24 23 20 19 20 20 20 22 25 26 23 21 21 22 21 20 18 17
3 3 5 6 7 8 9 8 8 9 10 13 15 16 16 16 15 15 15 16 17 17 16 17 19 20 20 20 19 20 20 20 20 22 23 22 19 16 16 16 16 15 13 11
2 2 2 5 8 9 8 6 5 5 7 10 12 14 14 14 13 11 11 12 13 13 13 14 15 14 15 16 17 19 20 19 20 21 21 18 14 11 11 9 8 8 8 6
1 1 2 4 7 7 5 3 1 2 3 6 9 11 13 12 11 10 10 10 11 11 11 11 10 9 10 12 13 15 16 17 17 17 16 14 11 9 9 6 4 3 3 3
2 2 2 3 4 4 2 1 1 1 1 3 5 8 10 11 9 9 9 9 9 8 8 7 6 6 7 8 9 10 11 13 13 13 12 10 8 7 8 7 5 3 1 1
2 2 2 3 3 3 2 2 3 3 3 3 3 4 6 7 7 7 7 8 7 6 5 4 4 5 6 7 7 8 8 9 10 10 8 6 5 5 5 6 6 5 3 1
3 3 3 3 3 3 3 3 4 5 4 3 2 1 2 4 5 5 5 5 4 4 4 4 4 4 5 6 7 8 8 7 7 7 6 5 4 4 4 5 6 6 5 3
2 3 3 3 3 3 3 3 3 3 3 2 1 0 1 2 3 4 3 3 3 3 3 3 3 3 4 6 7 8 8 7 6 6 6 5 5 4 3 4 5 6 5 4
1 1 2 3 3 3 3 2 1 1 1 1 0 0 0 1 1 2 3 3 3 2 2 3 3 3 4 5 7 8 8 7 6 6 6 5 5 4 3 4 4 4 4 4
0 0 1 2 2 2 1 1 0 0 0 0 1 1 1 0 0 1 3 3 2 1 1 2 3 3 3 4 6 8 7 7 6 6 5 4 4 3 3 3 3 3 2 2
0 0 0 1 1 1 0 0 0 0 0 0 1 2 2 1 0 1 2 2 2 1 1 2 3 3 3 3 4 6 6 6 6 6 4 3 3 3 2 2 2 2 1 1
0 0 0 0 0 0 0 0 0 0 0 0 0 1 2 1 0 0 1 1 1 1 1 2 2 3 2 2 2 4 5 6 6 4 2 1 2 1 1 1 1 1 0 0
0 0 0 0 0 0 0 0 0 0 0 0 0 0 1 1 0 0 0 0 0 0 0 1 1 1 1 1 1 2 3 4 4 3 1 0 0 0 0 0 0 0 0 0
0 0 0 0 0 0 0 0 0 0 0 0 0 0 0 0 0 0 0 0 0 0 0 0 0 0 0 0 0 1 1 2 2 2 1 0 0 0 0 0 0 0 0 0
0 0 0 0 0 0 0 0 0 0 0 0 0 0 0 0 0 0 0 0 0 0 0 0 0 0 0 0 0 0 0 1 1 1 0 0 0 0 0 0 0 0 0 0
0 0 0 0 0 0 0 0 0 0 0 0 0 0 0 0 0 0 0 0 0 0 0 0 0 0 0 0 0 0 0 0 0 0 0 0 0 0 0 0 0 0 0 0
0 0 0 0 0 0 0 0 0 0 0 0 0 0 0 0 0 0 0 0 0 0 0 0 0 0 0 0 0 0 0 0 0 0 0 0 0 0 0 0 0 0 0 0
0 0 0 0 0 0 0 0 0 0 0 0 0 0 0 0 0 0 0 0 0 0 0 0 0 0 0 0 0 0 0 0 0 0 0 0 0 0 0 0 0 0 0 0

GEFSNGP_con_prob3kmehi_216.txt.gz
EHI
0 0 1 1 1 1 0 0 0 0 0 2 5 7 12 20 23 22 20 19 17 17 17 16 15 18 19 17 15 17 21 25 24 19 15 12 12 12 10 8 6 5 4 4
0 0 1 2 2 1 0 0 0 0 1 4 7 9 14 20 22 20 18 17 16 17 18 17 17 19 19 18 16 16 20 23 22 18 14 13 13 13 11 11 10 8 7 6
0 0 1 2 1 1 1 1 1 1 2 5 8 10 14 19 19 17 15 15 15 16 17 17 18 20 20 19 18 17 20 22 22 19 15 14 13 12 12 13 14 12 10 9
0 0 0 1 1 2 3 3 2 2 4 6 9 11 13 17 17 15 14 14 15 16 16 17 18 19 20 21 20 20 22 22 21 19 16 13 13 13 14 15 15 14 12 10
0 0 0 1 2 3 4 4 3 4 6 9 11 12 12 14 15 15 15 13 13 14 16 16 17 18 19 18 19 20 22 21 19 17 15 14 14 14 15 16 16 14 12 11
0 0 0 1 2 2 3 3 4 5 7 11 13 11 9 9 12 13 12 12 12 13 14 15 15 16 16 15 15 16 17 17 17 17 17 16 14 14 14 14 14 13 12 12
0 0 1 2 2 2 2 3 3 4 7 12 13 9 6 6 9 10 10 11 13 13 13 12 13 15 15 13 12 11 12 13 16 19 19 18 15 13 12 11 11 11 11 10
0 1 1 3 3 2 2 3 4 5 7 10 11 9 5 5 8 9 10 12 14 14 12 10 10 13 14 13 12 11 11 13 16 17 18 17 17 15 12 10 9 9 8 7
2 3 3 3 3 2 2 3 5 6 7 8 9 7 5 5 8 10 10 11 12 13 11 8 9 11 12 12 12 12 12 13 14 15 15 16 17 16 13 10 8 8 9 9
4 4 3 2 1 1 1 3 4 5 7 6 6 5 4 4 6 7 8 9 10 10 9 8 9 10 10 10 12 14 13 11 12 13 14 14 16 17 14 10 8 8 10 12
3 3 2 1 0 0 0 1 2 3 4 4 4 4 2 3 4 5 5 7 9 9 8 7 8 9 9 9 11 13 12 9 10 11 13 14 15 15 13 10 9 8 10 12
1 1 1 1 0 0 0 0 0 1 1 1 1 2 2 3 4 4 4 6 8 9 8 7 6 6 7 8 10 11 10 7 7 9 11 12 13 14 11 8 6 5 7 8
0 1 1 1 1 0 0 0 0 0 0 0 1 2 3 4 4 4 5 6 8 9 9 8 6 5 4 5 7 8 6 5 5 7 8 9 11 12 11 7 3 2 2 3
1 1 2 2 1 0 1 0 0 0 0 0 1 2 3 4 4 5 6 6 7 9 9 8 6 4 3 4 4 4 4 3 4 5 6 8 9 10 10 8 4 1 0 0
1 2 2 2 0 0 0 0 0 0 0 0 0 1 3 5 5 5 5 6 7 9 9 8 6 3 2 2 3 3 3 3 3 4 5 6 7 8 8 7 5 3 1 0
1 2 3 2 1 1 0 0 0 0 0 0 0 1 2 5 5 5 4 5 6 7 6 5 3 1 0 1 1 2 2 2 3 3 3 4 6 7 6 4 4 3 2 1
1 2 2 2 2 1 0 0 0 0 0 0 0 0 1 2 4 4 3 3 4 3 2 1 1 0 0 0 0 1 1 1 1 2 3 4 5 6 4 3 2 2 2 2
0 1 1 1 2 1 0 0 0 0 0 0 0 0 0 1 1 1 1 1 1 1 0 0 0 0 0 0 0 0 1 1 1 2 3 4 5 5 3 1 1 1 1 1
0 0 0 1 2 2 1 0 0 0 0 0 0 0 0 1 0 0 0 0 0 0 0 0 0 0 0 0 0 1 2 3 3 4 4 4 4 4 2 0 0 0 0 1
0 0 0 1 1 2 1 0 0 0 0 0 0 0 0 1 1 1 1 0 0 0 0 0 0 0 0 0 0 1 2 4 5 5 4 4 4 4 2 0 0 0 1 2
0 0 0 0 0 1 1 0 0 0 0 0 0 0 0 0 1 2 1 0 0 0 0 0 0 0 0 0 0 1 2 3 4 4 4 3 4 4 4 2 0 1 2 3
0 0 0 0 0 0 0 0 0 0 0 0 0 0 0 0 1 1 1 0 0 0 0 0 0 0 0 0 0 1 2 3 3 2 3 3 4 5 5 4 2 2 3 3
0 0 0 0 0 0 0 0 0 0 0 0 0 0 0 0 0 0 0 0 0 0 0 0 0 0 0 0 0 1 2 2 2 1 2 3 3 4 4 5 4 3 3 3
0 0 0 0 0 0 0 0 0 0 0 0 0 0 0 0 0 0 0 0 0 0 0 0 0 0 0 0 0 0 1 1 1 0 1 2 2 2 3 4 3 2 2 1
0 0 0 0 0 0 0 0 0 0 0 0 0 0 0 0 0 0 0 0 0 0 0 0 0 0 0 0 0 0 0 0 0 0 0 1 1 1 1 2 2 1 0 0
0 0 0 0 0 0 0 0 0 0 0 0 0 0 0 0 0 0 0 0 0 0 0 0 0 0 0 0 0 0 0 0 0 0 0 0 0 0 0 1 1 0 0 0
0 0 0 0 0 0 0 0 0 0 0 0 0 0 0 0 0 0 0 0 0 0 0 0 0 0 0 0 0 0 0 0 0 0 0 0 0 0 0 0 0 0 0 0

GEFSNGP_con_prob3kmehi_222.txt.gz
EHI
0 0 0 1 1 0 0 0 0 1 3 9 17 23 28 34 38 37 38 40 40 38 41 41 40 40 38 35 34 34 34 34 32 30 27 26 26 27 27 24 20 18 16 14
0 0 0 1 2 1 1 0 0 1 6 13 20 24 28 33 36 37 39 40 39 37 39 41 40 38 37 36 37 39 38 35 32 31 29 27 26 26 25 23 21 20 19 18
0 0 0 1 2 3 2 1 0 1 7 16 21 23 27 32 36 38 40 39 35 33 35 39 38 37 36 38 41 43 41 38 35 33 31 29 28 27 25 23 21 22 23 22
0 0 0 1 2 3 3 3 2 2 6 13 17 19 23 29 34 37 39 37 31 28 31 36 36 35 37 40 43 44 41 38 38 37 34 31 30 28 26 23 21 22 24 24
0 0 0 1 2 3 2 3 5 5 7 11 15 16 20 25 29 33 35 34 30 27 31 34 33 32 35 37 40 41 39 36 37 39 37 33 30 29 27 26 24 23 23 23
0 0 1 2 3 2 1 4 7 9 11 13 15 16 20 24 26 28 31 30 28 28 31 33 31 31 33 34 33 33 33 33 35 37 36 31 28 28 29 30 29 26 23 21
0 0 2 4 4 4 4 7 11 14 16 16 17 18 21 23 24 25 27 27 25 26 29 31 31 31 33 32 28 27 27 29 31 31 29 27 26 27 29 31 31 27 23 21
2 3 6 8 9 9 10 12 15 18 19 20 20 19 19 20 20 21 23 22 22 24 27 29 31 32 33 32 29 25 23 24 24 21 19 21 23 25 25 26 25 23 22 21
7 9 11 12 13 14 14 15 17 18 18 18 17 15 16 17 17 17 18 17 19 23 27 29 29 30 30 29 27 24 22 20 17 13 12 15 19 21 22 22 21 20 19 18
11 12 14 14 14 14 15 15 16 17 16 15 13 13 14 14 14 15 15 15 17 21 24 27 26 24 23 23 22 22 22 19 15 10 9 13 16 18 20 21 21 20 17 15
12 13 14 13 12 14 15 15 14 14 14 12 11 10 9 9 10 11 12 12 13 16 17 19 19 19 19 20 20 20 20 17 13 10 9 11 14 16 17 18 17 16 14 12
13 14 14 13 12 13 14 12 10 10 9 8 7 6 5 3 4 6 9 9 9 11 11 12 13 15 17 18 19 18 16 13 12 10 9 10 13 14 13 11 10 9 8 7
12 13 14 13 11 10 10 8 6 6 5 4 3 3 1 0 1 4 7 7 7 7 9 9 10 11 13 16 17 17 15 13 13 13 10 10 11 11 9 7 6 5 4 2
8 10 12 12 10 8 6 4 3 3 3 1 0 0 0 0 1 3 5 6 5 6 7 8 8 9 10 12 14 15 14 14 15 15 12 11 10 9 8 7 7 6 4 2
6 8 10 11 10 6 3 1 1 1 1 0 0 0 0 0 1 2 3 3 4 4 5 6 6 7 9 10 10 10 11 12 12 13 12 11 9 6 6 7 8 8 7 5
6 7 9 9 7 4 1 0 0 0 0 0 0 0 0 0 2 2 1 1 2 3 4 5 5 5 7 8 6 6 7 7 7 7 8 7 6 5 4 5 6 8 8 8
5 5 5 4 4 2 1 0 0 0 0 0 0 0 0 0 2 2 1 0 0 1 3 5 5 4 4 5 4 4 4 3 4 4 4 4 4 4 4 4 4 5 6 7
3 3 2 1 1 1 0 0 0 0 0 0 0 0 0 1 2 3 2 0 0 0 1 3 3 3 3 3 3 3 3 3 3 3 3 3 3 4 4 3 3 3 3 4
2 2 1 0 0 0 0 0 0 0 0 0 0 0 0 1 2 2 1 0 0 0 0 1 1 2 3 3 2 2 2 2 1 1 2 2 1 2 3 3 3 3 3 2
1 1 0 0 0 0 0 0 0 0 0 1 1 0 0 0 1 1 0 0 0 0 0 0 0 1 2 1 1 1 1 1 0 0 1 1 0 1 2 3 3 3 3 2
0 0 0 0 0 0 0 0 0 0 1 2 1 0 0 0 0 0 0 0 0 0 0 0 1 1 1 0 0 0 0 0 0 0 1 1 0 1 2 3 4 4 3 2
0 0 0 1 1 1 0 0 0 0 1 1 1 0 0 0 0 0 0 0 0 0 0 1 1 1 0 0 0 0 0 0 0 0 0 0 0 1 2 4 5 6 5 5
0 1 1 1 2 1 0 0 0 0 0 0 0 0 0 0 0 0 0 0 0 0 0 1 1 1 0 0 0 0 0 1 1 1 0 1 1 1 2 3 4 5 5 5
1 1 2 2 2 1 0 0 0 0 0 0 0 0 0 0 0 0 0 0 0 0 0 0 0 0 0 0 0 0 0 1 3 3 2 2 2 2 2 1 2 3 4 4
0 1 2 1 1 0 0 0 0 0 0 0 0 0 0 0 0 0 0 0 0 0 0 0 0 0 0 0 0 0 0 1 3 4 3 2 1 1 1 0 0 1 2 3
0 0 0 0 0 0 0 0 0 0 0 0 0 0 0 0 0 0 0 0 0 0 0 0 0 0 0 0 0 0 0 1 2 3 3 1 0 0 0 0 0 0 1 2
0 0 0 0 0 0 0 0 0 0 0 0 0 0 0 0 0 0 0 0 0 0 0 0 0 0 0 0 0 0 0 1 2 2 1 0 0 0 0 0 0 0 0 1

GEFSNGP_con_prob3kmehi_228.txt.gz
EHI
0 0 0 0 0 0 0 1 0 3 12 21 27 34 41 44 47 50 52 53 55 60 63 64 64 64 62 62 62 61 59 58 57 56 52 48 45 43 43 41 37 33 29 28
0 0 0 0 0 0 0 1 2 5 13 23 30 36 40 43 45 48 51 53 54 55 57 59 60 60 60 61 62 62 59 56 56 55 52 49 45 42 39 37 36 33 30 30
0 0 0 0 0 0 0 1 5 9 17 25 31 35 37 38 41 45 49 52 52 51 51 52 53 53 54 57 59 59 56 53 53 52 49 47 44 40 36 35 34 33 31 29
0 0 0 0 0 0 0 2 6 12 18 24 29 32 34 36 39 42 47 49 49 47 46 45 45 44 46 50 54 53 50 49 49 48 46 46 44 40 37 35 35 34 31 29
0 0 0 0 0 0 2 5 9 12 17 23 27 30 34 39 40 41 43 45 45 42 40 39 38 39 42 47 49 47 46 46 47 45 45 46 45 41 38 36 35 32 29 27
0 0 0 1 0 0 4 9 13 16 21 27 31 33 37 40 39 38 39 41 40 38 36 35 35 37 41 44 46 44 43 43 44 43 42 42 42 40 38 36 33 29 25 24
0 1 3 4 4 5 10 17 21 24 28 33 37 37 36 36 35 33 34 35 37 37 35 34 33 34 36 39 39 38 38 38 38 36 34 34 36 37 36 35 32 28 25 24
2 4 8 10 11 15 23 28 29 29 30 33 36 36 33 33 32 30 29 32 35 36 35 32 31 31 32 33 32 30 31 32 30 28 26 28 31 32 32 30 29 28 27 26
5 8 11 15 18 23 30 33 31 29 28 28 30 31 32 32 31 29 29 31 32 31 30 28 27 27 28 28 27 25 25 24 24 22 21 24 27 27 26 25 24 25 25 24
8 10 13 16 20 23 25 26 27 27 26 25 28 29 29 29 28 27 27 26 25 23 23 23 24 25 24 24 24 23 21 19 19 19 20 22 22 20 21 21 20 20 21 22
11 13 15 16 18 19 19 20 22 24 24 24 25 26 24 22 22 22 21 20 17 16 17 20 23 24 23 22 22 22 20 17 16 17 18 19 17 14 14 15 14 14 16 18
14 15 15 15 15 16 17 18 20 21 21 21 22 21 18 16 16 16 15 15 14 13 13 16 21 22 22 21 22 21 19 17 15 15 16 16 14 11 9 8 7 7 9 11
13 13 13 13 14 15 16 17 18 18 17 17 17 16 14 13 13 12 12 11 12 12 13 14 16 18 17 18 20 20 19 17 14 13 14 14 12 10 8 5 4 5 4 3
10 10 10 11 12 13 15 15 15 14 13 13 14 14 12 11 11 10 8 7 9 11 12 12 12 13 15 15 15 15 15 15 13 12 12 12 11 11 9 6 7 8 6 3
9 10 10 10 11 11 12 13 13 13 12 12 13 13 11 10 10 9 7 6 8 10 11 11 10 10 11 11 9 9 10 10 11 11 11 11 11 10 8 7 9 12 12 9
10 10 10 10 10 10 9 10 11 12 12 12 12 11 9 8 8 9 8 8 8 9 10 10 9 8 8 8 7 6 6 5 6 7 8 9 9 8 6 5 8 12 13 13
8 9 10 10 10 10 9 8 10 11 10 10 9 7 7 6 6 6 7 7 8 8 7 7 7 7 7 7 6 4 3 3 3 4 5 6 7 6 4 3 4 7 9 9
8 9 9 8 8 8 7 8 9 9 7 5 5 5 5 5 5 4 4 3 4 4 3 3 4 5 6 6 6 4 3 3 3 3 3 3 4 4 2 1 1 3 4 5
7 7 7 6 5 5 6 7 7 5 4 3 4 5 5 5 4 3 1 1 1 1 0 0 2 3 4 5 6 5 4 3 3 3 3 2 2 1 1 0 0 1 2 3
5 5 5 4 4 4 5 5 4 3 3 3 4 4 4 2 1 1 0 0 0 0 0 0 1 2 3 4 4 5 4 3 3 3 2 1 0 0 0 0 0 0 1 2
3 3 4 4 3 2 2 3 3 3 3 3 2 2 2 1 1 0 0 0 0 0 0 0 0 1 1 2 3 4 3 3 3 2 1 1 0 0 1 1 0 0 0 1
3 3 3 3 2 1 1 1 2 2 3 3 2 1 2 2 1 0 0 0 0 0 0 0 0 0 0 1 3 3 3 3 2 1 0 0 0 1 2 1 0 0 1 1
3 2 2 2 2 2 1 1 2 3 5 5 3 2 3 2 1 0 0 0 0 0 0 0 0 0 0 1 2 2 2 1 1 0 0 0 0 1 1 1 0 1 1 2
2 2 2 2 2 2 1 1 2 4 4 4 2 1 2 1 0 0 0 0 0 0 0 0 0 0 0 0 1 1 1 0 0 0 0 0 0 0 0 0 1 2 2 2
2 2 2 1 1 1 1 1 1 2 2 1 0 0 0 0 0 0 0 0 0 0 0 0 0 0 0 0 0 0 0 0 0 0 0 0 0 0 0 0 1 2 2 2
2 2 1 0 0 0 0 0 0 0 0 0 0 0 0 0 0 0 0 0 0 0 0 0 0 0 0 0 0 0 0 0 0 0 0 0 0 0 1 1 2 3 2 1
1 1 0 0 0 0 0 0 0 0 0 0 0 0 0 0 0 0 0 0 0 0 0 0 0 0 0 0 0 0 0 0 0 0 0 1 1 1 2 2 3 3 1 0

GEFSNGP_con_prob3kmehi_234.txt.gz
EHI
0 0 0 0 0 0 0 1 2 4 6 12 17 18 18 21 26 32 35 34 33 32 31 30 29 29 30 33 36 37 38 38 35 34 31 27 24 20 18 16 14 14 12 10
0 0 0 0 0 0 0 2 5 6 8 13 19 20 18 20 25 29 31 31 29 28 29 29 29 29 30 32 35 37 37 35 33 32 31 28 25 23 20 17 16 15 13 11
0 0 0 0 0 0 2 4 7 9 12 17 23 23 19 19 22 24 27 29 27 25 26 27 26 27 29 30 32 34 34 32 31 32 32 29 26 25 22 18 17 16 14 13
0 0 0 0 0 1 4 6 8 12 16 21 25 25 22 21 21 22 25 28 27 25 24 24 23 24 26 26 28 30 30 30 31 32 32 28 25 25 23 20 17 16 14 14
0 0 0 1 3 5 7 10 14 18 21 25 27 27 24 22 23 24 25 26 24 22 21 22 21 22 23 23 24 25 26 27 30 31 30 28 25 24 23 21 18 16 14 12
0 0 1 3 6 7 8 12 17 22 26 29 29 27 23 23 25 26 24 21 19 16 16 18 19 20 20 20 19 20 21 24 27 28 28 27 24 22 22 21 19 17 14 12
0 1 2 5 8 8 7 9 15 21 26 29 29 26 25 26 26 23 19 16 13 12 13 15 16 17 18 18 17 17 18 20 22 22 22 21 19 19 21 21 18 17 15 13
1 1 2 4 7 8 7 8 11 16 22 27 28 27 27 27 24 19 16 13 11 10 11 12 13 14 15 15 15 16 16 17 17 16 15 14 14 15 17 17 16 16 15 13
2 3 3 4 6 7 8 10 12 15 19 25 27 27 26 23 19 15 13 11 9 8 9 9 11 12 12 11 12 14 15 16 15 13 11 10 10 11 11 11 12 13 13 12
6 6 6 7 7 7 10 12 14 15 18 22 24 24 21 16 11 10 9 8 7 6 6 7 8 9 9 9 10 11 13 14 15 14 11 9 8 9 9 9 8 9 10 10
7 6 7 8 8 10 12 13 14 15 16 18 19 19 15 9 6 6 6 6 5 5 5 4 4 5 6 7 8 9 11 13 13 12 10 8 7 7 8 8 7 6 7 7
5 5 5 7 8 9 11 11 11 12 13 13 13 13 10 7 6 5 4 4 4 4 3 2 2 2 4 5 6 7 9 10 11 10 8 7 6 7 7 7 5 3 4 5
4 3 4 5 6 8 8 9 9 10 10 10 10 10 9 7 5 4 3 2 1 2 3 3 2 2 3 4 5 7 8 8 8 9 7 6 6 6 6 5 2 1 1 2
3 3 3 4 6 7 7 8 9 9 10 10 9 9 8 6 3 1 1 1 0 1 2 2 2 2 2 3 5 6 7 6 7 7 7 7 6 6 5 4 1 0 0 0
3 3 4 5 6 7 8 9 10 10 9 9 8 7 5 3 1 0 0 0 0 0 1 1 1 1 1 3 5 6 7 6 5 5 6 5 4 4 3 2 1 0 0 0
4 4 5 6 7 7 8 9 8 8 8 7 5 4 3 2 1 0 0 0 0 0 0 0 0 0 1 2 4 5 6 6 5 4 4 3 2 2 2 1 1 0 0 0
6 6 6 7 8 8 8 8 6 4 4 3 2 1 1 1 0 0 0 0 0 0 0 0 0 0 0 1 2 2 3 4 3 2 2 2 2 2 2 1 1 1 0 0
6 6 6 7 8 8 8 6 3 1 1 1 0 0 0 0 0 0 0 0 0 0 0 0 0 0 0 0 0 1 2 3 2 2 1 1 2 3 2 1 0 0 0 0
4 4 4 6 7 7 6 3 1 0 0 0 0 0 0 0 0 0 0 0 0 0 0 0 0 0 0 0 0 0 1 2 1 1 0 1 1 1 1 0 0 0 0 0
3 3 3 3 4 4 3 2 1 0 0 0 0 0 0 0 0 0 0 0 0 0 0 0 0 0 0 0 0 0 0 0 0 0 0 0 0 0 0 0 0 0 0 0
3 2 1 1 1 1 1 1 1 0 0 0 0 0 0 0 0 0 0 0 0 0 0 0 0 0 0 0 0 0 0 0 0 0 0 0 0 0 0 0 0 0 0 0
3 2 1 0 0 0 0 1 1 0 0 0 1 0 0 0 0 0 0 0 0 0 0 0 0 0 0 0 0 0 0 0 0 0 0 0 0 0 0 0 0 0 0 0
2 2 1 0 0 0 0 0 0 0 0 0 0 0 0 0 0 0 0 0 0 0 0 0 0 0 0 0 0 0 0 0 0 0 0 0 0 0 0 0 0 0 0 0
1 1 0 0 0 0 0 0 0 0 0 0 0 0 0 0 0 0 0 0 0 0 0 0 0 0 0 0 0 0 0 0 0 0 0 0 0 0 0 0 0 0 0 0
0 0 0 0 0 0 0 0 0 0 0 0 0 0 0 0 0 0 0 0 0 0 0 0 0 0 0 0 0 0 0 0 0 0 0 0 0 0 0 0 0 0 0 0
0 0 0 0 0 0 0 0 0 0 0 0 0 0 0 0 0 0 0 0 0 0 0 0 0 0 0 0 0 0 0 0 0 0 0 0 0 0 0 0 0 0 0 0
0 0 0 0 0 0 0 0 0 0 0 0 0 0 0 0 0 0 0 0 0 0 0 0 0 0 0 0 0 0 0 0 0 0 0 0 0 0 0 0 0 0 0 0

GEFSNGP_con_prob3kmehi_240.txt.gz
EHI
0 0 0 0 0 0 0 0 0 0 0 1 4 8 9 8 5 3 4 6 8 8 10 14 17 18 22 23 20 19 19 18 17 17 18 19 20 15 8 5 6 6 7 7
0 0 0 0 0 0 0 0 0 1 1 2 4 8 10 8 6 6 6 8 10 9 9 12 15 18 21 22 22 22 22 22 21 20 20 20 19 14 8 5 6 7 7 7
0 0 0 0 0 0 0 0 0 1 2 4 5 7 8 7 7 7 8 11 11 10 9 11 15 18 19 20 22 23 23 23 24 23 22 21 18 13 8 6 6 8 8 8
0 0 0 0 0 0 0 0 0 2 3 5 7 7 8 7 6 6 8 11 12 11 12 15 16 17 17 18 19 20 20 22 24 22 20 18 16 12 9 8 9 9 9 8
0 0 0 0 0 0 0 0 1 3 5 6 8 9 9 8 5 4 6 10 13 13 15 18 18 18 16 16 16 15 16 17 18 16 14 13 13 12 11 11 12 11 11 10
0 0 0 0 0 0 0 0 1 3 5 7 8 9 9 8 8 7 7 10 13 14 15 17 18 17 14 13 11 10 10 12 12 12 9 8 10 11 12 12 11 11 11 11
0 0 0 0 0 0 0 0 1 3 4 7 8 8 8 11 13 13 11 10 12 14 14 15 14 13 11 10 8 5 6 8 9 9 7 6 7 9 10 10 9 9 9 9
0 0 0 0 0 0 0 1 2 3 4 7 8 8 9 13 16 17 14 12 12 12 12 11 10 10 9 8 6 4 5 6 6 6 6 6 6 7 8 8 8 7 7 6
0 0 0 0 0 0 0 2 3 3 4 6 7 8 10 14 16 16 13 12 11 11 10 8 7 7 7 6 4 4 4 5 4 4 4 5 5 6 7 8 8 7 6 5
0 0 1 1 1 0 0 2 3 4 5 7 8 10 13 15 15 14 12 11 10 10 9 7 5 5 4 4 4 4 4 4 4 4 5 5 6 6 7 8 8 7 6 5
0 0 1 2 2 1 1 2 3 5 7 8 9 11 13 13 11 11 10 9 9 9 7 5 4 3 3 3 4 4 4 4 4 5 5 6 6 6 7 7 7 6 6 7
0 0 1 3 3 1 1 3 4 6 7 8 9 9 8 7 7 7 7 7 7 6 5 4 3 3 3 3 3 3 4 4 4 3 3 4 4 5 6 6 4 3 4 5
0 0 2 5 5 3 2 4 5 7 8 8 7 6 3 3 4 4 3 4 4 3 3 2 2 2 3 2 2 3 4 4 3 2 3 4 4 5 5 5 3 1 1 1
1 2 4 6 6 5 5 5 6 6 6 6 5 3 3 3 3 1 1 1 1 1 1 1 1 1 1 2 3 3 3 3 3 4 5 5 6 5 5 4 3 1 0 0
2 3 4 5 6 6 6 5 4 4 4 4 4 3 4 3 1 0 0 0 0 0 0 0 0 0 0 1 2 2 2 1 2 4 5 5 6 5 5 4 3 2 0 0
3 3 3 3 4 4 4 4 4 3 3 3 3 3 3 2 0 0 0 0 0 0 0 0 0 0 0 0 1 1 1 0 1 2 2 3 4 3 4 4 3 2 1 0
3 3 2 2 2 3 3 3 3 3 2 2 2 1 1 0 0 0 0 0 0 0 0 0 0 0 0 0 0 0 0 0 0 0 1 1 1 1 2 3 3 3 2 1
3 3 4 4 3 4 4 3 2 2 2 1 1 0 0 0 0 0 0 0 0 0 0 0 0 0 0 0 0 0 0 0 0 0 0 0 0 0 1 1 2 3 2 1
4 4 6 6 6 6 5 3 2 1 1 1 0 0 0 0 0 0 0 0 0 0 0 0 0 0 0 0 0 0 0 0 0 0 0 0 0 1 1 0 1 2 1 0
3 4 4 5 4 3 3 2 1 1 0 0 0 0 0 0 0 0 0 0 0 0 0 0 0 0 0 0 0 0 0 0 0 0 0 0 1 2 2 1 0 0 0 0
2 1 1 1 1 1 1 1 0 0 0 0 0 0 0 0 0 0 0 0 0 0 0 0 0 0 0 0 0 0 0 0 0 0 0 0 1 2 2 1 0 0 0 0
2 1 0 0 0 0 0 0 0 0 0 0 0 0 0 0 0 0 0 0 0 0 0 0 0 0 0 0 0 0 0 0 0 0 0 0 0 1 1 0 0 0 0 0
2 1 0 0 0 0 0 0 0 0 0 0 0 0 0 0 0 0 0 0 0 0 0 0 0 0 0 0 0 0 0 0 0 0 0 0 0 0 0 0 0 0 0 0
2 1 0 0 0 0 0 0 0 0 0 0 0 0 0 0 0 0 0 0 0 0 0 0 0 0 0 0 0 0 0 0 0 0 0 0 0 0 0 0 0 0 0 0
2 1 0 0 0 0 0 0 0 0 0 0 0 0 0 0 0 0 0 0 0 0 0 0 0 0 0 0 0 0 0 0 0 0 0 0 0 0 0 0 0 0 0 0
1 0 0 0 0 0 0 0 0 0 0 0 0 0 0 0 0 0 0 0 0 0 0 0 0 0 0 0 0 0 0 0 0 0 0 0 0 0 0 0 0 0 0 0
0 0 0 0 0 0 0 0 0 0 0 0 0 0 0 0 0 0 0 0 0 0 0 0 0 0 0 0 0 0 0 0 0 0 0 0 0 0 0 0 0 0 0 0

GEFSNGP_con_prob3kmehi_246.txt.gz
EHI
0 0 0 0 0 0 0 0 0 0 1 4 6 9 12 14 17 21 24 22 23 25 27 31 36 38 39 39 38 39 40 38 34 29 25 24 23 25 29 29 27 24 23 23
0 0 0 0 0 0 0 0 0 0 2 5 7 10 11 12 15 20 23 22 22 26 29 32 35 37 39 40 39 40 41 40 37 33 28 26 27 27 29 30 29 27 26 25
0 0 0 0 0 0 0 0 0 1 3 6 7 9 10 11 14 19 22 23 24 28 31 32 33 35 38 39 38 39 41 40 38 35 30 29 29 28 28 29 30 29 28 27
0 0 0 0 0 1 1 1 1 2 4 6 7 8 9 11 14 19 21 23 24 27 29 31 30 31 34 35 34 35 38 39 37 34 32 30 29 28 28 28 29 29 27 26
0 0 0 0 1 2 2 2 1 2 4 6 7 8 10 12 15 18 20 22 23 23 26 29 30 30 31 31 30 32 36 38 37 36 34 32 32 32 30 28 29 29 27 26
0 0 0 0 1 2 1 1 1 2 4 5 7 9 14 17 17 17 19 22 23 23 26 30 32 32 32 31 30 32 34 34 34 35 34 34 35 34 31 29 29 27 26 25
0 0 0 0 1 1 1 2 2 3 5 7 10 16 20 21 18 17 19 21 22 24 27 30 32 33 34 33 33 33 32 30 29 30 30 30 31 30 28 28 26 24 21 19
0 0 0 0 1 3 4 5 6 7 8 13 17 20 21 19 18 16 18 21 23 25 27 29 30 31 32 31 31 30 27 24 23 23 22 23 24 24 23 24 21 18 15 12
1 1 0 2 4 5 6 8 10 10 13 17 20 19 17 17 18 18 19 23 25 26 27 28 28 28 28 26 25 24 20 16 15 14 15 17 18 18 19 18 15 12 10 8
2 2 2 3 5 5 6 8 9 10 14 17 16 14 15 17 20 20 21 24 25 26 26 24 24 25 24 21 18 16 13 9 7 7 9 11 12 12 12 11 10 9 8 7
3 3 3 4 4 4 5 7 8 9 12 12 11 10 13 16 18 18 19 22 22 22 21 19 19 19 18 16 14 11 8 5 4 4 6 7 8 7 6 6 7 7 7 6
4 5 6 6 4 3 4 5 7 8 9 9 9 11 13 14 14 14 15 18 19 18 16 14 13 13 13 13 11 9 6 4 3 4 6 6 7 6 3 2 3 4 3 2
8 8 8 8 6 4 3 4 5 6 6 8 10 12 13 13 12 12 13 15 17 16 13 10 9 9 10 11 10 8 6 4 3 4 4 5 5 5 3 2 2 1 1 0
9 9 9 9 7 5 4 4 5 5 5 8 11 13 12 12 11 12 13 13 14 13 11 9 8 8 9 10 9 7 6 4 3 3 2 2 3 4 4 4 3 2 1 0
7 7 8 7 6 6 6 5 6 6 6 7 10 12 12 11 10 11 11 12 11 11 10 9 8 8 9 9 7 7 6 4 3 3 2 1 1 2 4 4 4 3 2 1
5 6 6 5 6 6 6 6 6 6 6 6 8 11 11 10 9 9 10 10 9 9 9 9 9 9 8 7 7 6 5 4 3 3 3 2 1 1 2 3 4 3 2 1
5 5 5 5 6 6 6 6 5 5 5 6 7 9 9 8 7 8 8 9 8 8 9 9 9 8 7 7 6 6 4 3 2 3 3 2 1 0 1 2 3 2 1 1
4 5 6 7 6 6 6 6 5 5 5 6 7 7 6 6 6 6 7 7 7 6 7 7 6 6 6 6 6 4 2 1 1 1 2 2 1 0 0 1 2 3 2 2
4 7 9 8 7 7 6 6 5 5 5 5 6 5 4 4 5 5 4 4 3 3 3 3 3 2 3 4 3 2 1 0 0 0 1 1 0 0 0 2 3 3 3 3
5 8 10 8 7 8 7 5 4 4 4 4 4 3 3 3 4 4 2 1 1 1 1 1 2 2 2 2 1 1 0 0 0 0 0 0 0 0 0 1 3 3 3 3
3 5 7 6 7 7 6 4 3 2 2 2 1 1 1 2 3 2 1 0 0 0 1 1 2 2 2 2 1 0 0 0 0 0 0 0 0 0 0 1 3 3 3 3
1 2 3 4 5 4 4 3 2 1 1 1 0 0 0 1 1 1 0 0 0 0 1 1 1 1 1 1 0 0 0 0 0 0 0 0 0 0 1 2 3 3 3 2
1 1 2 2 2 2 1 1 1 1 1 1 0 0 0 0 0 0 0 0 0 0 0 0 0 0 0 0 0 0 0 0 0 0 0 0 0 0 1 2 3 3 1 1
2 3 3 2 1 1 0 0 0 1 2 2 1 0 0 0 0 0 0 0 0 0 0 0 0 0 0 0 0 0 0 0 0 0 0 0 0 0 0 1 2 2 1 1
3 3 3 3 2 1 0 0 0 0 1 1 0 0 0 0 1 1 1 1 0 0 0 0 0 0 0 0 0 0 0 0 0 0 0 0 0 0 0 0 1 1 1 2
3 3 3 3 3 2 1 0 0 1 1 1 0 0 0 0 1 1 1 0 0 0 0 0 0 0 0 0 0 0 0 0 0 0 0 0 0 0 0 0 0 0 1 1
2 3 3 3 3 2 1 0 1 2 2 2 1 0 0 0 1 1 0 0 0 0 0 0 0 0 0 0 0 0 0 0 0 0 0 0 0 0 0 0 0 0 0 0

GEFSNGP_con_prob3kmehi_252.txt.gz
EHI
0 0 0 0 0 0 0 0 0 1 5 11 16 19 22 24 24 24 27 32 39 47 52 55 58 60 60 59 60 62 63 62 59 57 58 58 53 49 45 41 37 36 33 28
0 0 0 0 0 0 0 0 0 1 6 13 19 22 22 23 23 23 25 29 36 45 51 54 55 56 57 57 59 60 61 60 57 56 55 54 52 50 47 43 40 38 35 31
0 0 0 0 0 0 0 1 3 5 10 16 21 22 21 20 20 22 24 29 35 41 47 49 49 51 54 56 56 57 57 57 55 53 50 49 50 49 47 44 40 36 34 33
0 0 0 0 0 0 0 3 7 11 15 19 20 19 18 16 17 21 25 30 35 38 40 42 44 49 53 53 54 55 54 52 51 48 44 44 45 46 45 43 39 34 30 29
0 0 0 0 0 0 1 4 9 14 18 19 17 15 16 15 17 23 29 32 34 35 36 39 44 48 50 50 50 52 51 47 44 42 39 38 40 41 42 42 39 33 29 27
0 0 0 0 0 0 2 6 10 15 18 17 15 17 21 22 24 29 34 35 33 33 37 42 45 46 46 47 48 49 47 43 40 39 38 36 35 37 38 39 37 33 30 29
0 0 1 1 1 2 7 13 16 18 19 18 21 26 32 32 31 34 36 35 34 36 41 45 45 44 45 46 47 46 43 40 38 38 37 36 34 33 32 32 32 29 26 25
0 2 5 6 6 8 14 21 24 22 22 24 28 33 36 36 35 36 35 35 35 38 42 43 42 42 43 43 43 41 39 36 34 34 34 32 30 28 25 24 23 22 20 19
3 4 7 10 11 13 18 22 23 23 25 28 30 32 33 35 35 35 35 34 34 35 37 36 37 38 39 38 36 35 33 30 28 26 25 23 21 19 17 15 14 15 14 13
8 7 7 8 11 13 15 16 18 20 24 26 28 29 31 33 33 34 35 35 34 34 32 31 31 32 32 31 30 28 26 23 20 19 17 13 11 9 8 7 8 9 9 9
11 8 7 8 10 12 13 13 15 18 20 22 24 26 28 30 31 33 34 35 34 32 30 28 27 26 25 25 24 22 20 16 13 12 10 8 6 5 3 2 3 4 5 5
10 10 9 10 12 13 13 13 14 17 17 16 17 20 22 23 25 30 32 30 28 26 26 26 24 23 22 22 21 18 14 10 7 6 5 4 4 3 2 0 0 1 2 2
9 10 11 11 12 13 12 11 11 12 12 11 12 14 16 17 21 27 28 24 22 21 22 23 22 21 20 20 19 15 11 8 5 4 3 3 3 2 1 0 0 0 0 0
9 10 11 11 10 10 9 8 7 6 7 9 10 10 12 16 22 25 24 21 19 19 20 21 20 19 18 17 14 12 9 5 3 3 2 2 2 1 1 1 1 1 1 0
9 9 10 10 8 7 6 5 3 2 4 8 10 10 12 17 22 24 21 19 19 20 20 19 17 16 13 11 10 9 7 4 2 1 1 1 1 1 1 1 1 1 2 1
7 8 9 10 8 5 4 3 2 2 4 8 10 11 14 18 21 20 17 17 20 22 21 19 16 13 10 8 8 8 6 3 2 2 2 2 2 2 2 1 1 1 2 2
5 6 8 9 7 5 4 4 3 3 5 8 10 12 15 17 19 17 13 12 16 19 20 18 16 12 9 8 7 7 6 4 3 3 3 3 3 3 2 1 1 1 2 2
3 3 6 7 6 6 5 5 5 5 5 7 9 12 13 15 16 17 14 10 11 13 14 15 13 10 8 7 7 6 6 5 4 3 4 3 3 3 3 2 1 1 1 1
2 2 4 6 7 6 5 5 5 6 6 6 7 9 10 12 14 15 14 11 8 8 8 9 9 7 6 6 5 6 6 6 4 4 4 4 3 2 2 2 2 1 1 2
1 2 4 6 7 5 5 6 7 8 8 6 6 7 8 9 11 12 11 9 7 6 5 5 5 5 5 4 3 5 6 5 4 4 4 3 1 1 1 1 2 3 4 5
1 3 5 6 6 5 6 7 8 9 8 6 6 7 6 6 7 7 6 5 4 3 3 2 3 3 4 2 2 3 4 4 3 3 3 2 1 0 0 1 2 3 5 6
3 4 6 6 5 4 5 5 5 6 6 5 5 5 4 3 3 4 3 2 1 1 1 1 2 2 2 2 2 2 3 3 2 1 1 1 0 0 0 0 1 3 5 6
4 5 6 4 3 3 3 2 2 3 4 4 4 3 2 2 2 2 3 2 0 0 0 1 2 1 1 1 2 3 3 2 1 0 0 0 0 0 0 0 1 3 5 5
5 4 4 3 2 3 3 2 2 3 3 3 3 3 3 2 1 1 2 1 0 0 0 1 1 0 1 2 3 3 3 2 1 0 0 0 0 0 0 0 1 2 3 4
4 4 3 3 3 3 3 3 3 3 3 3 3 3 2 2 1 1 1 1 0 0 0 0 0 0 1 3 3 3 3 2 1 0 0 0 0 0 0 0 1 2 3 3
3 3 3 3 3 4 3 2 2 2 2 2 3 2 1 2 2 2 1 0 0 0 0 1 1 1 2 3 3 3 2 1 0 0 0 0 0 0 0 0 1 2 3 3
2 2 2 2 2 3 3 2 1 2 1 1 2 2 2 2 3 2 1 0 0 0 1 2 3 2 2 3 3 3 1 0 0 0 0 0 0 0 0 0 1 2 3 3